WA4BPS Weather Reports


time (UTC)temp
C
wind
direction
speed
KPH
gust
KPH
rain 1hr
cm
rain 24hr
cm
rain mn
cm
humidity
%
barometer
mb
20260901201342 30 10 1.6 3.2 0.00 0.00 0.00 52 1016.2
20260901201239 30 11 3.2 3.2 0.00 0.00 0.00 52 1016.3
20260901201141 30 11 3.2 3.2 0.00 0.00 0.00 52 1016.3
20260901201041 30 11 1.6 3.2 0.00 0.00 0.00 52 1016.3
20260901201000 30 11 0.0 8.0 0.00 0.00 0.00 51 1016.3
20260901200837 30 11 0.0 8.0 0.00 0.00 0.00 52 1016.3
20260901200735 30 10 1.6 8.0 0.00 0.00 0.00 52 1016.3
20260901200633 30 10 1.6 8.0 0.00 0.00 0.00 54 1016.3
20260901200532 30 10 0.0 8.0 0.00 0.00 0.00 54 1016.3
20260901200434 30 11 0.0 8.0 0.00 0.00 0.00 54 1016.3
20260901200332 30 8 0.0 8.0 0.00 0.00 0.00 54 1016.3
20260901200231 30 10 3.2 8.0 0.00 0.00 0.00 54 1016.3
20260901200201 30 11 3.2 8.0 0.00 0.00 0.00 56 1016.3
20260901200038 30 13 4.8 8.0 0.00 0.00 0.00 53 1016.3
20260901195957 30 3 1.6 4.8 0.00 0.00 0.00 53 1016.3
20260901195835 30 1 1.6 4.8 0.00 0.00 0.00 53 1016.3
20260901195734 30 1 1.6 4.8 0.00 0.00 0.00 53 1016.3
20260901195636 30 1 3.2 4.8 0.00 0.00 0.00 52 1016.3
20260901195554 30 360 3.2 4.8 0.00 0.00 0.00 53 1016.3
20260901195432 30 1 3.2 4.8 0.00 0.00 0.00 51 1016.3
20260901195331 30 360 1.6 3.2 0.00 0.00 0.00 52 1016.3
20260901195229 30 360 1.6 3.2 0.00 0.00 0.00 54 1016.3
20260901195127 30 360 0.0 4.8 0.00 0.00 0.00 54 1016.3
20260901195026 30 360 0.0 4.8 0.00 0.00 0.00 57 1016.3
20260901194928 30 360 0.0 4.8 0.00 0.00 0.00 57 1016.3
20260901194826 30 360 0.0 4.8 0.00 0.00 0.00 56 1016.3
20260901194736 30 360 1.6 4.8 0.00 0.00 0.00 56 1016.3
20260901194645 30 1 1.6 4.8 0.00 0.00 0.00 56 1016.3
20260901194543 30 360 1.6 4.8 0.00 0.00 0.00 56 1016.3
20260901194442 30 360 1.6 4.8 0.00 0.00 0.00 55 1016.3
20260901194400 30 360 3.2 4.8 0.00 0.00 0.00 54 1016.3
20260901194237 30 360 3.2 4.8 0.00 0.00 0.00 55 1016.5
20260901194140 30 360 0.0 4.8 0.00 0.00 0.00 55 1016.5
20260901194058 30 360 0.0 4.8 0.00 0.00 0.00 55 1016.5
20260901193935 30 360 0.0 4.8 0.00 0.00 0.00 52 1016.5
20260901193853 30 360 0.0 4.8 0.00 0.00 0.00 53 1016.5
20260901193751 30 360 1.6 4.8 0.00 0.00 0.00 52 1016.5
20260901193628 30 360 1.6 8.0 0.00 0.00 0.00 52 1016.5
20260901193547 30 360 3.2 8.0 0.00 0.00 0.00 53 1016.5
20260901193425 30 360 3.2 8.0 0.00 0.00 0.00 54 1016.5
20260901193343 30 360 3.2 8.0 0.00 0.00 0.00 54 1016.5
20260901193238 30 1 1.6 8.0 0.00 0.00 0.00 53 1016.5
20260901193149 30 360 1.6 8.0 0.00 0.00 0.00 52 1016.5
20260901193027 30 1 3.2 8.0 0.00 0.00 0.00 50 1016.5
20260901192926 30 360 4.8 8.0 0.00 0.00 0.00 50 1016.5
20260901192825 30 360 4.8 8.0 0.00 0.00 0.00 50 1016.5
20260901192743 30 1 6.4 8.0 0.00 0.00 0.00 51 1016.6
20260901192642 30 360 6.4 8.0 0.00 0.00 0.00 50 1016.6
20260901192600 30 1 3.2 8.0 0.00 0.00 0.00 50 1016.6
20260901192457 30 1 3.2 8.0 0.00 0.00 0.00 49 1016.6
20260901192338 30 360 3.2 8.0 0.00 0.00 0.00 49 1016.6
20260901192237 30 1 4.8 8.0 0.00 0.00 0.00 49 1016.6
20260901192134 30 360 3.2 8.0 0.00 0.00 0.00 50 1016.6
20260901192052 30 1 1.6 4.8 0.00 0.00 0.00 50 1016.6
20260901191929 30 1 3.2 4.8 0.00 0.00 0.00 50 1016.6
20260901191829 30 360 3.2 6.4 0.00 0.00 0.00 52 1016.6
20260901191728 30 1 1.6 8.0 0.00 0.00 0.00 51 1016.6
20260901191702 30 3 1.6 8.0 0.00 0.00 0.00 50 1016.6
20260901191540 30 3 3.2 8.0 0.00 0.00 0.00 50 1016.6
20260901191458 30 1 4.8 8.0 0.00 0.00 0.00 52 1016.6
20260901191335 30 1 1.6 8.0 0.00 0.00 0.00 52 1016.6
20260901191234 30 6 1.6 8.0 0.00 0.00 0.00 52 1016.8
20260901191132 30 1 1.6 8.0 0.00 0.00 0.00 51 1016.8
20260901191030 30 1 3.2 8.0 0.00 0.00 0.00 51 1016.8
20260901190932 30 1 6.4 8.0 0.00 0.00 0.00 50 1016.8
20260901190828 30 325 1.6 6.4 0.00 0.00 0.00 50 1016.8
20260901190727 30 326 3.2 6.4 0.00 0.00 0.00 50 1016.8
20260901190624 30 325 1.6 8.0 0.00 0.00 0.00 50 1016.8
20260901190542 30 326 3.2 8.0 0.00 0.00 0.00 50 1016.8
20260901190441 30 328 3.2 8.0 0.00 0.00 0.00 51 1016.8
20260901190338 30 326 4.8 8.0 0.00 0.00 0.00 50 1016.8
20260901190237 30 360 4.8 8.0 0.00 0.00 0.00 49 1016.8
20260901190207 30 360 4.8 8.0 0.00 0.00 0.00 49 1016.8
20260901190027 30 360 4.8 8.0 0.00 0.00 0.00 51 1016.8
20260901185926 30 1 4.8 8.0 0.00 0.00 0.00 50 1016.8
20260901185824 30 1 3.2 8.0 0.00 0.00 0.00 51 1016.8
20260901185743 30 4 3.2 4.8 0.00 0.00 0.00 50 1016.9
20260901185643 30 4 3.2 4.8 0.00 0.00 0.00 50 1016.9
20260901185522 30 6 0.0 3.2 0.00 0.00 0.00 50 1016.9
20260901185426 30 6 0.0 3.2 0.00 0.00 0.00 49 1016.9
20260901185324 30 4 0.0 3.2 0.00 0.00 0.00 48 1016.9
20260901185243 30 6 0.0 4.8 0.00 0.00 0.00 47 1016.9
20260901185142 30 6 1.6 4.8 0.00 0.00 0.00 47 1016.9
20260901185040 30 6 1.6 4.8 0.00 0.00 0.00 48 1016.9
20260901184938 30 6 0.0 4.8 0.00 0.00 0.00 48 1016.9
20260901184858 30 6 0.0 4.8 0.00 0.00 0.00 48 1016.9
20260901184815 30 6 0.0 4.8 0.00 0.00 0.00 50 1016.9
20260901184725 30 4 0.0 4.8 0.00 0.00 0.00 50 1016.9
20260901184544 30 6 0.0 4.8 0.00 0.00 0.00 50 1016.9
20260901184502 30 6 1.6 4.8 0.00 0.00 0.00 52 1016.9
20260901184338 30 6 1.6 4.8 0.00 0.00 0.00 50 1016.9
20260901184257 30 7 3.2 4.8 0.00 0.00 0.00 51 1017.2
20260901184133 30 3 3.2 4.8 0.00 0.00 0.00 52 1017.2
20260901184033 30 1 0.0 4.8 0.00 0.00 0.00 52 1017.2
20260901183935 30 360 1.6 6.4 0.00 0.00 0.00 52 1017.2
20260901183832 30 360 3.2 6.4 0.00 0.00 0.00 51 1017.2
20260901183734 30 360 1.6 6.4 0.00 0.00 0.00 50 1017.2
20260901183653 30 360 1.6 6.4 0.00 0.00 0.00 51 1017.2
20260901183531 30 360 3.2 6.4 0.00 0.00 0.00 52 1017.2
20260901183429 30 1 0.0 6.4 0.00 0.00 0.00 51 1017.2
20260901183328 30 360 1.6 6.4 0.00 0.00 0.00 52 1017.2
20260901183237 30 360 4.8 6.4 0.00 0.00 0.00 52 1017.2
20260901183146 30 360 3.2 6.4 0.00 0.00 0.00 51 1017.2
20260901183028 30 360 3.2 6.4 0.00 0.00 0.00 52 1017.2
20260901182929 30 360 1.6 4.8 0.00 0.00 0.00 51 1017.2
20260901182828 30 360 1.6 4.8 0.00 0.00 0.00 50 1017.2
20260901182746 30 360 1.6 4.8 0.00 0.00 0.00 52 1017.3
20260901182644 30 1 3.2 4.8 0.00 0.00 0.00 52 1017.3
20260901182540 30 360 1.6 4.8 0.00 0.00 0.00 53 1017.3
20260901182458 30 360 1.6 4.8 0.00 0.00 0.00 53 1017.3
20260901182336 30 3 3.2 4.8 0.00 0.00 0.00 56 1017.3
20260901182238 30 360 3.2 4.8 0.00 0.00 0.00 57 1017.3
20260901182141 30 360 3.2 4.8 0.00 0.00 0.00 57 1017.3
20260901182039 30 3 1.6 4.8 0.00 0.00 0.00 57 1017.3
20260901181938 30 360 0.0 4.8 0.00 0.00 0.00 57 1017.3
20260901181836 30 1 0.0 4.8 0.00 0.00 0.00 56 1017.3
20260901181755 30 3 1.6 4.8 0.00 0.00 0.00 57 1017.3
20260901181724 30 360 3.2 4.8 0.00 0.00 0.00 58 1017.3
20260901181525 30 360 3.2 4.8 0.00 0.00 0.00 56 1017.3
20260901181443 30 1 3.2 4.8 0.00 0.00 0.00 56 1017.3
20260901181341 30 360 1.6 4.8 0.00 0.00 0.00 54 1017.3
20260901181240 30 360 0.0 4.8 0.00 0.00 0.00 54 1017.3
20260901181138 30 1 1.6 4.8 0.00 0.00 0.00 54 1017.3
20260901181036 30 1 1.6 4.8 0.00 0.00 0.00 55 1017.3
20260901180934 30 360 3.2 4.8 0.00 0.00 0.00 58 1017.3
20260901180836 30 1 0.0 3.2 0.00 0.00 0.00 58 1017.3
20260901180733 30 360 1.6 3.2 0.00 0.00 0.00 57 1017.3
20260901180652 30 360 1.6 4.8 0.00 0.00 0.00 58 1017.3
20260901180529 30 360 0.0 4.8 0.00 0.00 0.00 57 1017.3
20260901180429 30 360 0.0 4.8 0.00 0.00 0.00 57 1017.3
20260901180328 30 1 0.0 4.8 0.00 0.00 0.00 57 1017.3
20260901180241 30 360 0.0 4.8 0.00 0.00 0.00 57 1017.3
20260901180151 30 360 1.6 4.8 0.00 0.00 0.00 57 1017.3
20260901180051 30 360 1.6 4.8 0.00 0.00 0.00 56 1017.3
20260901175928 30 360 0.0 4.8 0.00 0.00 0.00 56 1017.3
20260901175827 30 360 3.2 4.8 0.00 0.00 0.00 57 1017.3
20260901175726 30 360 1.6 4.8 0.00 0.00 0.00 57 1017.4
20260901175627 30 360 1.6 4.8 0.00 0.00 0.00 55 1017.4
20260901175526 30 360 1.6 4.8 0.00 0.00 0.00 55 1017.4
20260901175425 30 360 1.6 6.4 0.00 0.00 0.00 55 1017.4
20260901175347 30 360 1.6 6.4 0.00 0.00 0.00 55 1017.4
20260901175306 30 360 3.2 9.7 0.00 0.00 0.00 54 1017.4
20260901175203 30 360 3.2 9.7 0.00 0.00 0.00 53 1017.4
20260901175041 30 360 3.2 9.7 0.00 0.00 0.00 53 1017.4
20260901174940 30 360 3.2 9.7 0.00 0.00 0.00 53 1017.4
20260901174836 30 1 1.6 9.7 0.00 0.00 0.00 54 1017.4
20260901174735 30 360 1.6 9.7 0.00 0.00 0.00 53 1017.4
20260901174704 30 1 3.2 9.7 0.00 0.00 0.00 52 1017.4
20260901174547 30 31 4.8 9.7 0.00 0.00 0.00 52 1017.4
20260901174505 30 31 6.4 9.7 0.00 0.00 0.00 54 1017.4
20260901174343 30 34 6.4 9.7 0.00 0.00 0.00 52 1017.4
20260901174302 30 27 3.2 6.4 0.00 0.00 0.00 53 1017.5
20260901174140 30 288 0.0 3.2 0.00 0.00 0.00 51 1017.5
20260901174038 30 287 0.0 3.2 0.00 0.00 0.00 52 1017.5
20260901173941 30 288 1.6 3.2 0.00 0.00 0.00 53 1017.5
20260901173838 30 287 1.6 3.2 0.00 0.00 0.00 56 1017.5
20260901173757 30 288 0.0 4.8 0.00 0.00 0.00 55 1017.5
20260901173638 30 281 0.0 4.8 0.00 0.00 0.00 55 1017.5
20260901173536 30 288 0.0 8.0 0.00 0.00 0.00 55 1017.5
20260901173434 30 288 0.0 8.0 0.00 0.00 0.00 57 1017.5
20260901173334 30 288 0.0 8.0 0.00 0.00 0.00 57 1017.5
20260901173233 30 287 0.0 8.0 0.00 0.00 0.00 57 1017.5
20260901173204 30 288 0.0 8.0 0.00 0.00 0.00 56 1017.5
20260901173024 30 288 1.6 8.0 0.00 0.00 0.00 53 1017.5
20260901172943 30 288 1.6 8.0 0.00 0.00 0.00 53 1017.5
20260901172841 30 284 1.6 8.0 0.00 0.00 0.00 56 1017.5
20260901172739 30 284 3.2 8.0 0.00 0.00 0.00 56 1017.8
20260901172640 30 281 3.2 8.0 0.00 0.00 0.00 57 1017.8
20260901172539 30 274 1.6 4.8 0.00 0.00 0.00 56 1017.8
20260901172437 30 272 0.0 4.8 0.00 0.00 0.00 55 1017.8
20260901172355 30 272 0.0 4.8 0.00 0.00 0.00 55 1017.8
20260901172231 30 272 1.6 4.8 0.00 0.00 0.00 54 1017.8
20260901172132 30 274 3.2 4.8 0.00 0.00 0.00 54 1017.8
20260901172029 30 270 1.6 4.8 0.00 0.00 0.00 54 1017.8
20260901171929 30 265 0.0 4.8 0.00 0.00 0.00 54 1017.8
20260901171827 30 263 0.0 8.0 0.00 0.00 0.00 55 1017.8
20260901171736 30 264 0.0 8.0 0.00 0.00 0.00 53 1017.8
20260901171645 30 264 0.0 8.0 0.00 0.00 0.00 52 1017.8
20260901171523 30 264 1.6 8.0 0.00 0.00 0.00 55 1017.8
20260901171426 30 265 4.8 8.0 0.00 0.00 0.00 55 1017.8
20260901171345 30 265 4.8 8.0 0.00 0.00 0.00 55 1017.8
20260901171303 30 261 3.2 8.0 0.00 0.00 0.00 54 1017.9
20260901171140 30 260 1.6 8.0 0.00 0.00 0.00 55 1017.9
20260901171038 30 260 4.8 8.0 0.00 0.00 0.00 55 1017.9
20260901170936 30 261 6.4 8.0 0.00 0.00 0.00 55 1017.9
20260901170835 30 267 1.6 8.0 0.00 0.00 0.00 56 1017.9
20260901170737 30 268 1.6 8.0 0.00 0.00 0.00 57 1017.9
20260901170634 30 270 3.2 8.0 0.00 0.00 0.00 56 1017.9
20260901170531 30 264 0.0 4.8 0.00 0.00 0.00 56 1017.9
20260901170430 30 265 0.0 4.8 0.00 0.00 0.00 58 1017.9
20260901170330 30 264 0.0 4.8 0.00 0.00 0.00 58 1017.9
20260901170228 30 265 0.0 4.8 0.00 0.00 0.00 57 1017.9
20260901170200 30 264 0.0 4.8 0.00 0.00 0.00 56 1017.9
20260901170036 30 264 1.6 4.8 0.00 0.00 0.00 56 1017.9
20260901165941 30 264 3.2 4.8 0.00 0.00 0.00 56 1017.9
20260901165839 30 263 0.0 4.8 0.00 0.00 0.00 56 1017.9
20260901165738 30 261 0.0 4.8 0.00 0.00 0.00 56 1018.1
20260901165637 30 261 0.0 4.8 0.00 0.00 0.00 56 1018.1
20260901165534 30 258 1.6 4.8 0.00 0.00 0.00 55 1018.1
20260901165433 30 263 1.6 6.4 0.00 0.00 0.00 55 1018.1
20260901165335 30 260 0.0 6.4 0.00 0.00 0.00 54 1018.1
20260901165233 30 261 0.0 6.4 0.00 0.00 0.00 54 1018.1
20260901165132 30 261 1.6 6.4 0.00 0.00 0.00 55 1018.1
20260901165030 30 260 1.6 6.4 0.00 0.00 0.00 56 1018.1
20260901164929 30 260 3.2 6.4 0.00 0.00 0.00 56 1018.1
20260901164828 30 260 3.2 6.4 0.00 0.00 0.00 55 1018.1
20260901164726 30 261 3.2 6.4 0.00 0.00 0.00 56 1018.1
20260901164703 30 260 3.2 6.4 0.00 0.00 0.00 56 1018.1
20260901164539 30 260 3.2 6.4 0.00 0.00 0.00 56 1018.1
20260901164436 30 254 0.0 4.8 0.00 0.00 0.00 55 1018.1
20260901164334 30 254 0.0 4.8 0.00 0.00 0.00 54 1018.1
20260901164232 30 254 0.0 4.8 0.00 0.00 0.00 54 1018.2
20260901164129 30 254 0.0 4.8 0.00 0.00 0.00 54 1018.2
20260901164028 30 254 1.6 4.8 0.00 0.00 0.00 54 1018.2
20260901163926 30 251 3.2 4.8 0.00 0.00 0.00 55 1018.2
20260901163830 30 254 1.6 4.8 0.00 0.00 0.00 54 1018.2
20260901163729 30 254 0.0 4.8 0.00 0.00 0.00 55 1018.2
20260901163628 30 254 3.2 4.8 0.00 0.00 0.00 55 1018.2
20260901163547 30 254 1.6 4.8 0.00 0.00 0.00 53 1018.2
20260901163427 30 254 1.6 11.3 0.00 0.00 0.00 53 1018.2
20260901163343 30 251 3.2 11.3 0.00 0.00 0.00 56 1018.2
20260901163242 30 254 3.2 11.3 0.00 0.00 0.00 58 1018.2
20260901163213 30 256 1.6 11.3 0.00 0.00 0.00 57 1018.2
20260901163033 30 254 0.0 11.3 0.00 0.00 0.00 57 1018.2
20260901162929 30 254 0.0 11.3 0.00 0.00 0.00 55 1018.2
20260901162848 30 251 0.0 11.3 0.00 0.00 0.00 55 1018.2
20260901162745 29 254 1.6 11.3 0.00 0.00 0.00 59 1018.4
20260901162700 29 251 4.8 11.3 0.00 0.00 0.00 60 1018.4
20260901162538 29 256 3.2 11.3 0.00 0.00 0.00 59 1018.4
20260901162437 29 261 0.0 4.8 0.00 0.00 0.00 57 1018.4
20260901162335 29 258 0.0 4.8 0.00 0.00 0.00 58 1018.4
20260901162238 29 260 1.6 4.8 0.00 0.00 0.00 61 1018.4
20260901162136 29 254 1.6 4.8 0.00 0.00 0.00 61 1018.4
20260901162036 29 260 0.0 4.8 0.00 0.00 0.00 61 1018.4
20260901161954 29 258 0.0 4.8 0.00 0.00 0.00 61 1018.4
20260901161852 29 257 0.0 4.8 0.00 0.00 0.00 60 1018.4
20260901161801 29 260 0.0 4.8 0.00 0.00 0.00 61 1018.4
20260901161649 29 260 1.6 4.8 0.00 0.00 0.00 60 1018.4
20260901161546 29 260 1.6 4.8 0.00 0.00 0.00 60 1018.4
20260901161504 29 277 1.6 4.8 0.00 0.00 0.00 60 1018.4
20260901161342 29 284 0.0 4.8 0.00 0.00 0.00 61 1018.4
20260901161304 29 282 0.0 4.8 0.00 0.00 0.00 62 1018.4
20260901161141 28 284 0.0 4.8 0.00 0.00 0.00 62 1018.4
20260901161038 28 282 1.6 4.8 0.00 0.00 0.00 62 1018.4
20260901160936 28 284 1.6 4.8 0.00 0.00 0.00 62 1018.4
20260901160835 28 284 0.0 4.8 0.00 0.00 0.00 62 1018.4
20260901160735 28 284 1.6 4.8 0.00 0.00 0.00 62 1018.4
20260901160653 28 278 1.6 4.8 0.00 0.00 0.00 62 1018.4
20260901160530 28 284 0.0 3.2 0.00 0.00 0.00 62 1018.4
20260901160452 28 282 1.6 3.2 0.00 0.00 0.00 62 1018.4
20260901160330 28 282 0.0 3.2 0.00 0.00 0.00 62 1018.4
20260901160229 28 284 0.0 3.2 0.00 0.00 0.00 60 1018.4
20260901160200 28 282 0.0 3.2 0.00 0.00 0.00 60 1018.4
20260901160035 28 282 1.6 4.8 0.00 0.00 0.00 60 1018.4
20260901155933 28 282 1.6 4.8 0.00 0.00 0.00 61 1018.4
20260901155831 28 281 0.0 4.8 0.00 0.00 0.00 61 1018.4
20260901155730 28 282 0.0 4.8 0.00 0.00 0.00 60 1018.6
20260901155653 28 282 1.6 4.8 0.00 0.00 0.00 63 1018.6
20260901155550 28 284 3.2 4.8 0.00 0.00 0.00 64 1018.6
20260901155508 28 282 1.6 4.8 0.00 0.00 0.00 63 1018.6
20260901155404 28 284 0.0 4.8 0.00 0.00 0.00 62 1018.6
20260901155240 28 284 1.6 4.8 0.00 0.00 0.00 62 1018.6
20260901155139 28 284 1.6 4.8 0.00 0.00 0.00 62 1018.6
20260901155058 28 285 0.0 4.8 0.00 0.00 0.00 62 1018.6
20260901154955 28 284 0.0 4.8 0.00 0.00 0.00 63 1018.6
20260901154831 28 284 1.6 4.8 0.00 0.00 0.00 63 1018.6
20260901154739 28 281 0.0 4.8 0.00 0.00 0.00 63 1018.6
20260901154653 28 282 0.0 4.8 0.00 0.00 0.00 64 1018.6
20260901154531 28 284 0.0 4.8 0.00 0.00 0.00 64 1018.6
20260901154430 28 282 1.6 8.0 0.00 0.00 0.00 65 1018.6
20260901154329 28 284 3.2 8.0 0.00 0.00 0.00 65 1018.6
20260901154229 28 282 1.6 8.0 0.00 0.00 0.00 64 1018.6
20260901154147 28 281 3.2 8.0 0.00 0.00 0.00 63 1018.6
20260901154106 28 282 3.2 8.0 0.00 0.00 0.00 65 1018.6
20260901154004 28 282 3.2 8.0 0.00 0.00 0.00 65 1018.6
20260901153840 28 281 3.2 8.0 0.00 0.00 0.00 65 1018.6
20260901153802 28 280 1.6 8.0 0.00 0.00 0.00 65 1018.6
20260901153639 28 284 3.2 8.0 0.00 0.00 0.00 65 1018.6
20260901153537 28 281 3.2 4.8 0.00 0.00 0.00 65 1018.6
20260901153456 28 282 1.6 8.0 0.00 0.00 0.00 65 1018.6
20260901153334 28 282 0.0 8.0 0.00 0.00 0.00 65 1018.6
20260901153231 28 284 0.0 8.0 0.00 0.00 0.00 65 1018.6
20260901153203 28 282 0.0 8.0 0.00 0.00 0.00 66 1018.6
20260901153040 28 280 3.2 8.0 0.00 0.00 0.00 66 1018.6
20260901152959 27 275 1.6 8.0 0.00 0.00 0.00 66 1018.6
20260901152840 27 278 3.2 8.0 0.00 0.00 0.00 67 1018.6
20260901152738 27 275 3.2 8.0 0.00 0.00 0.00 66 1018.6
20260901152636 27 275 4.8 8.0 0.00 0.00 0.00 67 1018.6
20260901152536 27 258 3.2 6.4 0.00 0.00 0.00 67 1018.6
20260901152435 27 261 4.8 6.4 0.00 0.00 0.00 68 1018.6
20260901152334 27 258 4.8 6.4 0.00 0.00 0.00 68 1018.6
20260901152232 27 258 1.6 4.8 0.00 0.00 0.00 67 1018.6
20260901152135 27 258 3.2 4.8 0.00 0.00 0.00 67 1018.6
20260901152034 27 256 1.6 4.8 0.00 0.00 0.00 67 1018.6
20260901151952 27 256 3.2 4.8 0.00 0.00 0.00 67 1018.6
20260901151848 27 257 3.2 3.2 0.00 0.00 0.00 67 1018.6
20260901151737 27 257 0.0 4.8 0.00 0.00 0.00 67 1018.6
20260901151646 27 257 0.0 8.0 0.00 0.00 0.00 66 1018.6
20260901151543 27 257 1.6 8.0 0.00 0.00 0.00 68 1018.6
20260901151441 27 256 1.6 8.0 0.00 0.00 0.00 68 1018.6
20260901151343 27 257 1.6 8.0 0.00 0.00 0.00 68 1018.6
20260901151242 27 256 1.6 8.0 0.00 0.00 0.00 68 1018.6
20260901151141 27 256 0.0 8.0 0.00 0.00 0.00 68 1018.6
20260901151040 27 253 1.6 8.0 0.00 0.00 0.00 67 1018.6
20260901150938 27 257 3.2 8.0 0.00 0.00 0.00 67 1018.6
20260901150836 27 256 4.8 8.0 0.00 0.00 0.00 68 1018.6
20260901150734 27 254 3.2 8.0 0.00 0.00 0.00 68 1018.6
20260901150637 27 257 1.6 3.2 0.00 0.00 0.00 68 1018.6
20260901150535 27 254 0.0 3.2 0.00 0.00 0.00 68 1018.6
20260901150432 27 257 0.0 4.8 0.00 0.00 0.00 69 1018.6
20260901150330 27 256 0.0 4.8 0.00 0.00 0.00 68 1018.6
20260901150239 27 256 0.0 4.8 0.00 0.00 0.00 69 1018.6
20260901150149 27 256 0.0 4.8 0.00 0.00 0.00 69 1018.6
20260901150047 27 257 0.0 4.8 0.00 0.00 0.00 68 1018.6
20260901145945 27 256 0.0 4.8 0.00 0.00 0.00 68 1018.6
20260901145827 27 254 1.6 4.8 0.00 0.00 0.00 68 1018.6
20260901145726 27 257 1.6 4.8 0.00 0.00 0.00 68 1018.5
20260901145644 27 257 3.2 6.4 0.00 0.00 0.00 68 1018.5
20260901145602 27 256 1.6 6.4 0.00 0.00 0.00 69 1018.5
20260901145500 27 253 0.0 6.4 0.00 0.00 0.00 69 1018.5
20260901145337 27 248 0.0 6.4 0.00 0.00 0.00 68 1018.5
20260901145234 27 253 1.6 6.4 0.00 0.00 0.00 69 1018.5
20260901145133 27 253 0.0 6.4 0.00 0.00 0.00 69 1018.5
20260901145030 26 254 1.6 6.4 0.00 0.00 0.00 68 1018.5
20260901144931 26 253 3.2 6.4 0.00 0.00 0.00 69 1018.5
20260901144830 26 247 4.8 6.4 0.00 0.00 0.00 68 1018.5
20260901144739 26 253 1.6 4.8 0.00 0.00 0.00 68 1018.5
20260901144648 26 253 0.0 4.8 0.00 0.00 0.00 68 1018.5
20260901144525 26 251 3.2 4.8 0.00 0.00 0.00 68 1018.5
20260901144424 26 250 1.6 8.0 0.00 0.00 0.00 68 1018.5
20260901144342 26 253 3.2 9.7 0.00 0.00 0.00 68 1018.5
20260901144225 26 254 3.2 9.7 0.00 0.00 0.00 69 1018.7
20260901144142 26 251 3.2 9.7 0.00 0.00 0.00 69 1018.7
20260901144101 26 253 1.6 9.7 0.00 0.00 0.00 69 1018.7
20260901143941 26 250 0.0 9.7 0.00 0.00 0.00 70 1018.7
20260901143840 26 253 0.0 9.7 0.00 0.00 0.00 69 1018.7
20260901143757 26 251 1.6 9.7 0.00 0.00 0.00 68 1018.7
20260901143634 26 253 3.2 9.7 0.00 0.00 0.00 68 1018.7
20260901143533 26 251 6.4 9.7 0.00 0.00 0.00 69 1018.7
20260901143436 26 253 4.8 9.7 0.00 0.00 0.00 69 1018.7
20260901143334 26 251 3.2 9.7 0.00 0.00 0.00 68 1018.7
20260901143232 26 253 3.2 9.7 0.00 0.00 0.00 68 1018.7
20260901143202 26 250 3.2 9.7 0.00 0.00 0.00 69 1018.7
20260901143059 26 251 4.8 9.7 0.00 0.00 0.00 68 1018.7
20260901142937 26 250 3.2 8.0 0.00 0.00 0.00 69 1018.7
20260901142834 26 253 4.8 8.0 0.00 0.00 0.00 69 1018.7
20260901142733 26 253 4.8 8.0 0.00 0.00 0.00 69 1018.7
20260901142657 26 250 1.6 8.0 0.00 0.00 0.00 69 1018.7
20260901142536 26 253 3.2 8.0 0.00 0.00 0.00 68 1018.7
20260901142435 26 254 4.8 8.0 0.00 0.00 0.00 68 1018.7
20260901142332 26 251 4.8 8.0 0.00 0.00 0.00 68 1018.7
20260901142227 26 251 4.8 8.0 0.00 0.00 0.00 68 1018.7
20260901142147 26 250 4.8 8.0 0.00 0.00 0.00 68 1018.7
20260901142105 26 254 4.8 8.0 0.00 0.00 0.00 68 1018.7
20260901141942 26 250 3.2 8.0 0.00 0.00 0.00 68 1018.7
20260901141825 26 250 3.2 8.0 0.00 0.00 0.00 69 1018.7
20260901141743 26 248 1.6 8.0 0.00 0.00 0.00 69 1018.7
20260901141712 26 250 3.2 8.0 0.00 0.00 0.00 69 1018.7
20260901141531 26 243 3.2 8.0 0.00 0.00 0.00 68 1018.7
20260901141449 26 248 4.8 8.0 0.00 0.00 0.00 69 1018.7
20260901141324 26 248 1.6 8.0 0.00 0.00 0.00 69 1018.7
20260901141243 26 250 1.6 6.4 0.00 0.00 0.00 69 1018.6
20260901141142 26 248 1.6 6.4 0.00 0.00 0.00 69 1018.6
20260901141041 26 250 3.2 6.4 0.00 0.00 0.00 69 1018.6
20260901141005 26 246 1.6 6.4 0.00 0.00 0.00 70 1018.6
20260901140842 26 247 3.2 6.4 0.00 0.00 0.00 70 1018.6
20260901140740 26 248 0.0 8.0 0.00 0.00 0.00 69 1018.6
20260901140639 26 250 0.0 8.0 0.00 0.00 0.00 70 1018.6
20260901140558 26 248 0.0 8.0 0.00 0.00 0.00 71 1018.6
20260901140435 26 250 1.6 8.0 0.00 0.00 0.00 70 1018.6
20260901140332 26 248 3.2 8.0 0.00 0.00 0.00 70 1018.6
20260901140226 25 250 4.8 8.0 0.00 0.00 0.00 70 1018.6
20260901135939 25 241 3.2 8.0 0.00 0.00 0.00 71 1018.6
20260901135838 25 240 3.2 8.0 0.00 0.00 0.00 70 1018.6
20260901135755 25 241 1.6 8.0 0.00 0.00 0.00 70 1018.3
20260901135633 25 240 3.2 8.0 0.00 0.00 0.00 71 1018.3
20260901135533 25 236 4.8 9.7 0.00 0.00 0.00 71 1018.3
20260901135432 25 239 3.2 9.7 0.00 0.00 0.00 71 1018.3
20260901135333 25 240 3.2 9.7 0.00 0.00 0.00 71 1018.3
20260901135231 25 237 4.8 11.3 0.00 0.00 0.00 71 1018.3
20260901135130 25 237 4.8 11.3 0.00 0.00 0.00 71 1018.3
20260901135028 25 237 3.2 11.3 0.00 0.00 0.00 71 1018.3
20260901134927 25 239 4.8 11.3 0.00 0.00 0.00 71 1018.3
20260901134824 25 234 1.6 11.3 0.00 0.00 0.00 71 1018.3
20260901134733 25 234 4.8 11.3 0.00 0.00 0.00 71 1018.3
20260901134646 25 234 3.2 12.9 0.00 0.00 0.00 71 1018.3
20260901134524 25 222 1.6 12.9 0.00 0.00 0.00 71 1018.3
20260901134443 25 227 4.8 12.9 0.00 0.00 0.00 71 1018.3
20260901134342 25 217 4.8 12.9 0.00 0.00 0.00 72 1018.3
20260901134221 25 234 4.8 12.9 0.00 0.00 0.00 72 1018.3
20260901134143 25 234 6.4 12.9 0.00 0.00 0.00 72 1018.3
20260901134040 25 234 8.0 12.9 0.00 0.00 0.00 72 1018.3
20260901133938 25 234 9.7 12.9 0.00 0.00 0.00 72 1018.3
20260901133840 25 219 8.0 12.9 0.00 0.00 0.00 72 1018.3
20260901133740 25 220 9.7 12.9 0.00 0.00 0.00 72 1018.3
20260901133637 25 233 6.4 11.3 0.00 0.00 0.00 72 1018.3
20260901133555 25 234 3.2 11.3 0.00 0.00 0.00 72 1018.3
20260901133431 25 234 6.4 11.3 0.00 0.00 0.00 72 1018.3
20260901133330 25 239 8.0 12.9 0.00 0.00 0.00 72 1018.3
20260901133228 25 233 4.8 12.9 0.00 0.00 0.00 72 1018.3
20260901133159 25 230 8.0 12.9 0.00 0.00 0.00 73 1018.3
20260901133037 25 232 6.4 12.9 0.00 0.00 0.00 72 1018.3
20260901132936 25 230 4.8 12.9 0.00 0.00 0.00 72 1018.3
20260901132834 25 226 3.2 12.9 0.00 0.00 0.00 72 1018.3
20260901132733 25 227 3.2 12.9 0.00 0.00 0.00 72 1018.4
20260901132651 25 229 6.4 12.9 0.00 0.00 0.00 72 1018.4
20260901132529 25 229 9.7 12.9 0.00 0.00 0.00 72 1018.4
20260901132428 25 232 6.4 12.9 0.00 0.00 0.00 72 1018.4
20260901132330 25 232 4.8 12.9 0.00 0.00 0.00 72 1018.4
20260901132229 25 232 6.4 16.1 0.00 0.00 0.00 72 1018.4
20260901132147 25 229 4.8 16.1 0.00 0.00 0.00 72 1018.4
20260901132026 25 230 8.0 16.1 0.00 0.00 0.00 72 1018.4
20260901131924 25 229 8.0 16.1 0.00 0.00 0.00 72 1018.4
20260901131823 25 229 9.7 16.1 0.00 0.00 0.00 72 1018.4
20260901131735 25 232 9.7 16.1 0.00 0.00 0.00 72 1018.4
20260901131649 25 215 6.4 16.1 0.00 0.00 0.00 72 1018.4
20260901131528 25 220 8.0 16.1 0.00 0.00 0.00 72 1018.4
20260901131427 25 215 11.3 16.1 0.00 0.00 0.00 72 1018.4
20260901131324 25 224 8.0 12.9 0.00 0.00 0.00 72 1018.4
20260901131224 25 223 9.7 12.9 0.00 0.00 0.00 72 1018.3
20260901131143 25 224 6.4 12.9 0.00 0.00 0.00 72 1018.3
20260901131041 25 223 6.4 12.9 0.00 0.00 0.00 72 1018.3
20260901130958 25 227 6.4 12.9 0.00 0.00 0.00 72 1018.3
20260901130840 25 224 6.4 12.9 0.00 0.00 0.00 72 1018.3
20260901130739 25 229 9.7 12.9 0.00 0.00 0.00 72 1018.3
20260901130637 25 229 6.4 12.9 0.00 0.00 0.00 72 1018.3
20260901130536 25 223 9.7 16.1 0.00 0.00 0.00 73 1018.3
20260901130434 25 220 9.7 16.1 0.00 0.00 0.00 73 1018.3
20260901130334 24 217 4.8 16.1 0.00 0.00 0.00 73 1018.3
20260901130253 24 217 4.8 16.1 0.00 0.00 0.00 73 1018.3
20260901130201 24 216 8.0 16.1 0.00 0.00 0.00 73 1018.3
20260901130043 24 217 6.4 16.1 0.00 0.00 0.00 73 1018.3
20260901125942 24 216 4.8 16.1 0.00 0.00 0.00 73 1018.3
20260901125840 24 222 6.4 16.1 0.00 0.00 0.00 73 1018.3
20260901125737 24 200 4.8 16.1 0.00 0.00 0.00 73 1018.4
20260901125637 24 215 9.7 16.1 0.00 0.00 0.00 74 1018.4
20260901125537 24 208 9.7 16.1 0.00 0.00 0.00 73 1018.4
20260901125440 24 205 9.7 16.1 0.00 0.00 0.00 73 1018.4
20260901125339 24 215 6.4 16.1 0.00 0.00 0.00 73 1018.4
20260901125236 24 212 6.4 16.1 0.00 0.00 0.00 73 1018.4
20260901125135 24 206 8.0 16.1 0.00 0.00 0.00 73 1018.4
20260901125033 24 222 4.8 12.9 0.00 0.00 0.00 74 1018.4
20260901124931 24 220 8.0 12.9 0.00 0.00 0.00 74 1018.4
20260901124829 24 219 3.2 12.9 0.00 0.00 0.00 74 1018.4
20260901124743 24 217 8.0 12.9 0.00 0.00 0.00 74 1018.4
20260901124653 24 215 8.0 12.9 0.00 0.00 0.00 73 1018.4
20260901124551 24 217 6.4 12.9 0.00 0.00 0.00 74 1018.4
20260901124428 24 217 3.2 12.9 0.00 0.00 0.00 73 1018.4
20260901124330 24 219 8.0 12.9 0.00 0.00 0.00 74 1018.4
20260901124229 24 222 8.0 11.3 0.00 0.00 0.00 74 1018.2
20260901124147 24 222 6.4 11.3 0.00 0.00 0.00 74 1018.2
20260901124025 24 224 6.4 11.3 0.00 0.00 0.00 74 1018.2
20260901123927 24 223 9.7 16.1 0.00 0.00 0.00 74 1018.2
20260901123845 24 230 9.7 16.1 0.00 0.00 0.00 74 1018.2
20260901123743 24 240 9.7 16.1 0.00 0.00 0.00 74 1018.2
20260901123640 24 230 8.0 16.1 0.00 0.00 0.00 74 1018.2
20260901123538 24 234 6.4 16.1 0.00 0.00 0.00 74 1018.2
20260901123435 24 227 8.0 16.1 0.00 0.00 0.00 73 1018.2
20260901123334 24 226 4.8 16.1 0.00 0.00 0.00 73 1018.2
20260901123253 24 224 6.4 16.1 0.00 0.00 0.00 73 1018.2
20260901123202 24 226 9.7 16.1 0.00 0.00 0.00 73 1018.2
20260901123059 24 215 11.3 16.1 0.00 0.00 0.00 73 1018.2
20260901122941 24 220 11.3 16.1 0.00 0.00 0.00 73 1018.2
20260901122839 24 219 9.7 16.1 0.00 0.00 0.00 73 1018.2
20260901122738 24 222 8.0 16.1 0.00 0.00 0.00 73 1018.0
20260901122638 24 226 9.7 16.1 0.00 0.00 0.00 73 1018.0
20260901122556 24 223 8.0 16.1 0.00 0.00 0.00 73 1018.0
20260901122433 24 206 9.7 16.1 0.00 0.00 0.00 73 1018.0
20260901122331 24 236 8.0 16.1 0.00 0.00 0.00 73 1018.0
20260901122234 24 234 11.3 16.1 0.00 0.00 0.00 73 1018.0
20260901122132 24 196 9.7 16.1 0.00 0.00 0.00 73 1018.0
20260901122030 24 232 9.7 16.1 0.00 0.00 0.00 73 1018.0
20260901121928 24 234 9.7 16.1 0.00 0.00 0.00 73 1018.0
20260901121849 24 233 9.7 16.1 0.00 0.00 0.00 73 1018.0
20260901121737 24 224 8.0 16.1 0.00 0.00 0.00 73 1018.0
20260901121647 24 220 9.7 16.1 0.00 0.00 0.00 73 1018.0
20260901121545 24 216 9.7 16.1 0.00 0.00 0.00 72 1018.0
20260901121442 24 224 4.8 16.1 0.00 0.00 0.00 72 1018.0
20260901121345 24 222 9.7 16.1 0.00 0.00 0.00 72 1018.0
20260901121243 24 224 9.7 16.1 0.00 0.00 0.00 72 1017.7
20260901121142 24 234 8.0 16.1 0.00 0.00 0.00 72 1017.7
20260901121102 24 232 6.4 16.1 0.00 0.00 0.00 72 1017.7
20260901120938 24 233 9.7 16.1 0.00 0.00 0.00 72 1017.7
20260901120858 24 220 11.3 16.1 0.00 0.00 0.00 71 1017.7
20260901120755 24 217 9.7 12.9 0.00 0.00 0.00 71 1017.7
20260901120632 24 223 8.0 12.9 0.00 0.00 0.00 71 1017.7
20260901120530 24 210 8.0 12.9 0.00 0.00 0.00 71 1017.7
20260901120432 24 220 4.8 12.9 0.00 0.00 0.00 71 1017.7
20260901120329 24 222 4.8 12.9 0.00 0.00 0.00 71 1017.7
20260901120228 24 222 9.7 12.9 0.00 0.00 0.00 71 1017.7
20260901120158 24 212 8.0 12.9 0.00 0.00 0.00 71 1017.7
20260901120034 24 224 9.7 12.9 0.00 0.00 0.00 71 1017.7
20260901115932 24 232 8.0 12.9 0.00 0.00 0.00 71 1017.7
20260901115831 24 222 9.7 12.9 0.00 0.00 0.00 71 1017.7
20260901115735 24 224 9.7 12.9 0.00 0.00 0.00 71 1017.6
20260901115634 24 226 8.0 12.9 0.00 0.00 0.00 71 1017.6
20260901115551 24 237 4.8 12.9 0.00 0.00 0.00 71 1017.6
20260901115433 24 237 6.4 12.9 0.00 0.00 0.00 71 1017.6
20260901115335 24 223 8.0 12.9 0.00 0.00 0.00 71 1017.6
20260901115234 24 227 6.4 12.9 0.00 0.00 0.00 71 1017.6
20260901115152 24 227 8.0 12.9 0.00 0.00 0.00 71 1017.6
20260901115030 24 230 9.7 12.9 0.00 0.00 0.00 71 1017.6
20260901114952 24 234 9.7 12.9 0.00 0.00 0.00 70 1017.6
20260901114830 24 229 6.4 12.9 0.00 0.00 0.00 70 1017.6
20260901114749 24 222 6.4 12.9 0.00 0.00 0.00 70 1017.6
20260901114718 24 219 8.0 14.5 0.00 0.00 0.00 70 1017.6
20260901114556 24 229 9.7 14.5 0.00 0.00 0.00 70 1017.6
20260901114451 24 220 8.0 14.5 0.00 0.00 0.00 70 1017.6
20260901114330 24 209 9.7 14.5 0.00 0.00 0.00 70 1017.6
20260901114227 24 215 8.0 14.5 0.00 0.00 0.00 70 1017.5
20260901114145 24 206 8.0 14.5 0.00 0.00 0.00 70 1017.5
20260901114042 24 219 6.4 14.5 0.00 0.00 0.00 70 1017.5
20260901113944 24 220 8.0 14.5 0.00 0.00 0.00 70 1017.5
20260901113902 24 213 8.0 14.5 0.00 0.00 0.00 70 1017.5
20260901113741 24 212 9.7 14.5 0.00 0.00 0.00 70 1017.5
20260901113640 24 220 8.0 14.5 0.00 0.00 0.00 70 1017.5
20260901113539 24 230 8.0 14.5 0.00 0.00 0.00 70 1017.5
20260901113437 24 212 8.0 14.5 0.00 0.00 0.00 70 1017.5
20260901113336 24 219 8.0 14.5 0.00 0.00 0.00 70 1017.5
20260901113305 24 223 6.4 14.5 0.00 0.00 0.00 70 1017.5
20260901113158 24 223 6.4 14.5 0.00 0.00 0.00 70 1017.5
20260901113054 24 219 6.4 17.7 0.00 0.00 0.00 70 1017.5
20260901112952 24 209 8.0 17.7 0.00 0.00 0.00 70 1017.5
20260901112830 24 226 9.7 17.7 0.00 0.00 0.00 70 1017.5
20260901112748 24 217 9.7 17.7 0.00 0.00 0.00 69 1017.4
20260901112645 24 236 8.0 17.7 0.00 0.00 0.00 70 1017.4
20260901112544 24 232 6.4 17.7 0.00 0.00 0.00 70 1017.4
20260901112503 24 222 6.4 17.7 0.00 0.00 0.00 70 1017.4
20260901112340 24 227 6.4 17.7 0.00 0.00 0.00 70 1017.4
20260901112223 24 219 11.3 17.7 0.00 0.00 0.00 70 1017.4
20260901112124 24 220 11.3 14.5 0.00 0.00 0.00 70 1017.4
20260901112043 24 210 9.7 14.5 0.00 0.00 0.00 70 1017.4
20260901111940 24 229 8.0 11.3 0.00 0.00 0.00 70 1017.4
20260901111839 24 226 8.0 12.9 0.00 0.00 0.00 70 1017.4
20260901111737 24 230 4.8 14.5 0.00 0.00 0.00 69 1017.4
20260901111707 24 236 9.7 14.5 0.00 0.00 0.00 69 1017.4
20260901111543 24 230 8.0 14.5 0.00 0.00 0.00 69 1017.4
20260901111446 24 219 6.4 14.5 0.00 0.00 0.00 69 1017.4
20260901111404 23 229 8.0 14.5 0.00 0.00 0.00 69 1017.4
20260901111241 23 227 8.0 16.1 0.00 0.00 0.00 69 1017.2
20260901111140 23 230 6.4 16.1 0.00 0.00 0.00 69 1017.2
20260901111038 23 229 8.0 16.1 0.00 0.00 0.00 69 1017.2
20260901110936 23 232 11.3 16.1 0.00 0.00 0.00 69 1017.2
20260901110855 23 237 9.7 16.1 0.00 0.00 0.00 70 1017.2
20260901110734 23 224 8.0 17.7 0.00 0.00 0.00 69 1017.2
20260901110636 23 230 8.0 17.7 0.00 0.00 0.00 69 1017.2
20260901110534 23 232 8.0 17.7 0.00 0.00 0.00 69 1017.2
20260901110432 23 230 9.7 17.7 0.00 0.00 0.00 69 1017.2
20260901110350 23 217 11.3 17.7 0.00 0.00 0.00 69 1017.2
20260901110230 23 213 9.7 17.7 0.00 0.00 0.00 70 1017.2
20260901110201 23 223 9.7 17.7 0.00 0.00 0.00 70 1017.2
20260901110037 23 217 8.0 17.7 0.00 0.00 0.00 70 1017.2
20260901105935 23 205 9.7 17.7 0.00 0.00 0.00 70 1017.2
20260901105838 23 213 9.7 17.7 0.00 0.00 0.00 70 1017.2
20260901105736 23 220 11.3 17.7 0.00 0.00 0.00 70 1017.2
20260901105636 23 219 11.3 17.7 0.00 0.00 0.00 70 1017.2
20260901105536 23 213 11.3 17.7 0.00 0.00 0.00 70 1017.2
20260901105433 23 192 8.0 16.1 0.00 0.00 0.00 69 1017.2
20260901105330 23 226 9.7 16.1 0.00 0.00 0.00 70 1017.2
20260901105229 23 227 9.7 16.1 0.00 0.00 0.00 70 1017.2
20260901105130 23 213 11.3 16.1 0.00 0.00 0.00 70 1017.2
20260901105029 23 195 9.7 17.7 0.00 0.00 0.00 70 1017.2
20260901104926 23 208 8.0 17.7 0.00 0.00 0.00 70 1017.2
20260901104824 23 208 9.7 17.7 0.00 0.00 0.00 70 1017.2
20260901104724 23 212 9.7 17.7 0.00 0.00 0.00 70 1017.2
20260901104653 23 205 8.0 17.7 0.00 0.00 0.00 70 1017.2
20260901104531 23 227 8.0 17.7 0.00 0.00 0.00 70 1017.2
20260901104433 23 216 9.7 17.7 0.00 0.00 0.00 70 1017.2
20260901104332 23 223 9.7 17.7 0.00 0.00 0.00 70 1017.2
20260901104231 23 199 11.3 17.7 0.00 0.00 0.00 70 1017.0
20260901104130 23 202 8.0 17.7 0.00 0.00 0.00 70 1017.0
20260901104028 23 216 8.0 17.7 0.00 0.00 0.00 70 1017.0
20260901103928 23 216 9.7 17.7 0.00 0.00 0.00 70 1017.0
20260901103830 23 200 12.9 17.7 0.00 0.00 0.00 70 1017.0
20260901103752 23 222 8.0 16.1 0.00 0.00 0.00 70 1017.0
20260901103629 23 215 9.7 16.1 0.00 0.00 0.00 70 1017.0
20260901103526 23 209 9.7 16.1 0.00 0.00 0.00 70 1017.0
20260901103426 23 209 8.0 16.1 0.00 0.00 0.00 70 1017.0
20260901103326 23 210 6.4 16.1 0.00 0.00 0.00 70 1017.0
20260901103238 23 206 11.3 16.1 0.00 0.00 0.00 70 1017.0
20260901103149 23 212 6.4 16.1 0.00 0.00 0.00 70 1017.0
20260901103030 23 205 8.0 16.1 0.00 0.00 0.00 71 1017.0
20260901102927 23 203 6.4 14.5 0.00 0.00 0.00 71 1017.0
20260901102846 23 206 8.0 14.5 0.00 0.00 0.00 71 1017.0
20260901102805 23 205 9.7 14.5 0.00 0.00 0.00 71 1017.0
20260901102641 23 209 6.4 14.5 0.00 0.00 0.00 71 1017.0
20260901102539 23 192 8.0 19.3 0.00 0.00 0.00 71 1017.0
20260901102438 23 185 9.7 19.3 0.00 0.00 0.00 71 1017.0
20260901102336 23 212 8.0 19.3 0.00 0.00 0.00 71 1017.0
20260901102238 23 196 6.4 19.3 0.00 0.00 0.00 71 1017.0
20260901102136 23 199 9.7 19.3 0.00 0.00 0.00 71 1017.0
20260901102035 23 215 9.7 19.3 0.00 0.00 0.00 71 1017.0
20260901101957 23 210 6.4 19.3 0.00 0.00 0.00 71 1017.0
20260901101854 23 210 6.4 19.3 0.00 0.00 0.00 71 1017.0
20260901101731 23 198 9.7 19.3 0.00 0.00 0.00 70 1017.0
20260901101700 23 195 9.7 19.3 0.00 0.00 0.00 71 1017.0
20260901101538 23 206 8.0 19.3 0.00 0.00 0.00 70 1017.0
20260901101434 23 203 8.0 19.3 0.00 0.00 0.00 71 1017.0
20260901101353 23 202 8.0 19.3 0.00 0.00 0.00 71 1017.0
20260901101234 23 193 8.0 19.3 0.00 0.00 0.00 71 1016.9
20260901101133 23 203 8.0 16.1 0.00 0.00 0.00 71 1016.9
20260901101031 23 193 8.0 16.1 0.00 0.00 0.00 71 1016.9
20260901100933 23 188 8.0 16.1 0.00 0.00 0.00 71 1016.9
20260901100834 23 208 8.0 16.1 0.00 0.00 0.00 71 1016.9
20260901100752 23 205 8.0 16.1 0.00 0.00 0.00 71 1016.9
20260901100628 23 198 6.4 16.1 0.00 0.00 0.00 71 1016.9
20260901100530 23 198 6.4 16.1 0.00 0.00 0.00 71 1016.9
20260901100430 23 193 8.0 16.1 0.00 0.00 0.00 71 1016.9
20260901100329 23 198 9.7 16.1 0.00 0.00 0.00 71 1016.9
20260901100227 23 198 8.0 16.1 0.00 0.00 0.00 71 1016.9
20260901100158 23 199 8.0 16.1 0.00 0.00 0.00 71 1016.9
20260901100054 23 186 9.7 16.1 0.00 0.00 0.00 72 1016.9
20260901095952 23 179 9.7 16.1 0.00 0.00 0.00 72 1016.9
20260901095829 23 193 8.0 16.1 0.00 0.00 0.00 72 1016.9
20260901095733 23 184 6.4 12.9 0.00 0.00 0.00 72 1016.7
20260901095632 23 185 3.2 12.9 0.00 0.00 0.00 72 1016.7
20260901095550 23 192 6.4 12.9 0.00 0.00 0.00 72 1016.7
20260901095427 23 188 6.4 12.9 0.00 0.00 0.00 73 1016.7
20260901095326 24 210 6.4 12.9 0.00 0.00 0.00 73 1016.7
20260901095224 24 193 4.8 12.9 0.00 0.00 0.00 73 1016.7
20260901095143 24 185 4.8 12.9 0.00 0.00 0.00 73 1016.7
20260901095026 24 186 6.4 12.9 0.00 0.00 0.00 72 1016.7
20260901094924 24 189 4.8 12.9 0.00 0.00 0.00 72 1016.7
20260901094843 24 191 6.4 12.9 0.00 0.00 0.00 72 1016.7
20260901094742 24 182 4.8 11.3 0.00 0.00 0.00 72 1016.7
20260901094653 24 184 4.8 11.3 0.00 0.00 0.00 72 1016.7
20260901094531 24 179 4.8 11.3 0.00 0.00 0.00 72 1016.7
20260901094449 24 178 6.4 11.3 0.00 0.00 0.00 72 1016.7
20260901094327 24 185 8.0 11.3 0.00 0.00 0.00 72 1016.7
20260901094230 24 181 4.8 9.7 0.00 0.00 0.00 72 1016.7
20260901094128 24 181 4.8 8.0 0.00 0.00 0.00 72 1016.7
20260901094027 24 182 3.2 8.0 0.00 0.00 0.00 72 1016.7
20260901093924 24 176 4.8 8.0 0.00 0.00 0.00 72 1016.7
20260901093842 24 182 4.8 8.0 0.00 0.00 0.00 72 1016.7
20260901093740 24 176 3.2 8.0 0.00 0.00 0.00 72 1016.7
20260901093641 24 178 4.8 11.3 0.00 0.00 0.00 71 1016.7
20260901093540 24 178 3.2 11.3 0.00 0.00 0.00 71 1016.7
20260901093442 24 178 3.2 11.3 0.00 0.00 0.00 71 1016.7
20260901093401 24 179 3.2 11.3 0.00 0.00 0.00 71 1016.7
20260901093257 24 174 4.8 11.3 0.00 0.00 0.00 72 1016.7
20260901093207 24 174 3.2 11.3 0.00 0.00 0.00 72 1016.7
20260901093042 24 175 3.2 11.3 0.00 0.00 0.00 73 1016.7
20260901092941 24 178 4.8 11.3 0.00 0.00 0.00 73 1016.7
20260901092900 24 179 4.8 11.3 0.00 0.00 0.00 73 1016.7
20260901092739 24 179 4.8 11.3 0.00 0.00 0.00 72 1016.5
20260901092656 24 178 3.2 9.7 0.00 0.00 0.00 72 1016.5
20260901092553 24 178 3.2 9.7 0.00 0.00 0.00 72 1016.5
20260901092434 24 181 3.2 9.7 0.00 0.00 0.00 72 1016.5
20260901092332 24 184 3.2 9.7 0.00 0.00 0.00 72 1016.5
20260901092251 24 184 3.2 9.7 0.00 0.00 0.00 72 1016.5
20260901092128 24 182 4.8 9.7 0.00 0.00 0.00 72 1016.5
20260901092026 24 181 3.2 9.7 0.00 0.00 0.00 72 1016.5
20260901091926 24 184 6.4 9.7 0.00 0.00 0.00 71 1016.5
20260901091824 24 186 4.8 9.7 0.00 0.00 0.00 71 1016.5
20260901091733 24 184 3.2 9.7 0.00 0.00 0.00 71 1016.5
20260901091646 24 179 3.2 9.7 0.00 0.00 0.00 71 1016.5
20260901091524 24 184 4.8 9.7 0.00 0.00 0.00 71 1016.5
20260901091443 24 174 3.2 9.7 0.00 0.00 0.00 71 1016.5
20260901091341 24 175 3.2 9.7 0.00 0.00 0.00 71 1016.5
20260901091239 24 178 3.2 9.7 0.00 0.00 0.00 71 1016.4
20260901091138 24 178 3.2 9.7 0.00 0.00 0.00 71 1016.4
20260901091036 24 179 4.8 11.3 0.00 0.00 0.00 71 1016.4
20260901090939 24 181 4.8 11.3 0.00 0.00 0.00 71 1016.4
20260901090837 24 179 3.2 11.3 0.00 0.00 0.00 71 1016.4
20260901090735 24 184 3.2 11.3 0.00 0.00 0.00 71 1016.4
20260901090635 24 182 3.2 11.3 0.00 0.00 0.00 71 1016.4
20260901090534 24 188 3.2 11.3 0.00 0.00 0.00 71 1016.4
20260901090431 24 186 6.4 11.3 0.00 0.00 0.00 71 1016.4
20260901090329 24 184 4.8 11.3 0.00 0.00 0.00 71 1016.4
20260901090232 24 181 6.4 11.3 0.00 0.00 0.00 71 1016.4
20260901090203 24 185 4.8 11.3 0.00 0.00 0.00 71 1016.4
20260901090040 24 179 4.8 11.3 0.00 0.00 0.00 71 1016.4
20260901085937 24 175 4.8 11.3 0.00 0.00 0.00 71 1016.4
20260901085836 24 176 3.2 11.3 0.00 0.00 0.00 71 1016.4
20260901085733 24 172 4.8 11.3 0.00 0.00 0.00 71 1016.4
20260901085630 24 174 3.2 11.3 0.00 0.00 0.00 71 1016.4
20260901085529 24 174 3.2 11.3 0.00 0.00 0.00 72 1016.4
20260901085431 24 171 6.4 11.3 0.00 0.00 0.00 72 1016.4
20260901085329 24 171 3.2 11.3 0.00 0.00 0.00 72 1016.4
20260901085227 24 175 3.2 11.3 0.00 0.00 0.00 71 1016.4
20260901085127 24 178 4.8 19.3 0.00 0.00 0.00 71 1016.4
20260901085045 24 178 4.8 19.3 0.00 0.00 0.00 71 1016.4
20260901084943 24 176 4.8 19.3 0.00 0.00 0.00 71 1016.4
20260901084841 24 171 6.4 19.3 0.00 0.00 0.00 71 1016.4
20260901084724 24 181 6.4 19.3 0.00 0.00 0.00 71 1016.4
20260901084655 24 179 4.8 19.3 0.00 0.00 0.00 71 1016.4
20260901084552 24 185 3.2 19.3 0.00 0.00 0.00 70 1016.4
20260901084450 24 184 6.4 19.3 0.00 0.00 0.00 70 1016.4
20260901084328 24 195 9.7 19.3 0.00 0.00 0.00 69 1016.4
20260901084226 24 176 6.4 14.5 0.00 0.00 0.00 69 1016.4
20260901084145 24 184 8.0 14.5 0.00 0.00 0.00 70 1016.4
20260901084103 24 184 8.0 14.5 0.00 0.00 0.00 70 1016.4
20260901083925 24 196 8.0 14.5 0.00 0.00 0.00 70 1016.4
20260901083842 24 191 6.4 12.9 0.00 0.00 0.00 70 1016.4
20260901083741 24 186 8.0 12.9 0.00 0.00 0.00 70 1016.4
20260901083638 24 206 6.4 12.9 0.00 0.00 0.00 70 1016.4
20260901083535 24 185 4.8 11.3 0.00 0.00 0.00 70 1016.4
20260901083434 24 191 6.4 11.3 0.00 0.00 0.00 70 1016.4
20260901083331 24 191 4.8 11.3 0.00 0.00 0.00 70 1016.4
20260901083241 24 169 6.4 11.3 0.00 0.00 0.00 70 1016.4
20260901083150 24 172 4.8 11.3 0.00 0.00 0.00 71 1016.4
20260901083029 24 174 4.8 11.3 0.00 0.00 0.00 71 1016.4
20260901082929 25 167 4.8 11.3 0.00 0.00 0.00 71 1016.4
20260901082827 25 169 6.4 11.3 0.00 0.00 0.00 71 1016.4
20260901082746 25 169 8.0 11.3 0.00 0.00 0.00 71 1016.4
20260901082703 25 169 6.4 11.3 0.00 0.00 0.00 71 1016.4
20260901082540 25 174 4.8 11.3 0.00 0.00 0.00 71 1016.4
20260901082438 25 164 4.8 11.3 0.00 0.00 0.00 71 1016.4
20260901082339 25 167 3.2 11.3 0.00 0.00 0.00 71 1016.4
20260901082238 25 162 6.4 11.3 0.00 0.00 0.00 71 1016.4
20260901082135 25 167 8.0 11.3 0.00 0.00 0.00 71 1016.4
20260901082034 25 161 8.0 9.7 0.00 0.00 0.00 71 1016.4
20260901081933 25 161 6.4 11.3 0.00 0.00 0.00 71 1016.4
20260901081832 25 162 4.8 11.3 0.00 0.00 0.00 71 1016.4
20260901081740 25 164 6.4 11.3 0.00 0.00 0.00 71 1016.4
20260901081652 25 165 6.4 11.3 0.00 0.00 0.00 71 1016.4
20260901081554 25 168 4.8 11.3 0.00 0.00 0.00 71 1016.4
20260901081432 25 168 6.4 11.3 0.00 0.00 0.00 70 1016.4
20260901081350 25 162 8.0 11.3 0.00 0.00 0.00 70 1016.4
20260901081308 25 157 4.8 11.3 0.00 0.00 0.00 70 1016.4
20260901081204 25 162 4.8 11.3 0.00 0.00 0.00 70 1016.4
20260901081041 25 162 6.4 11.3 0.00 0.00 0.00 70 1016.4
20260901080959 25 164 4.8 9.7 0.00 0.00 0.00 70 1016.4
20260901080837 25 164 8.0 11.3 0.00 0.00 0.00 70 1016.4
20260901080755 25 162 6.4 11.3 0.00 0.00 0.00 70 1016.4
20260901080637 25 168 8.0 11.3 0.00 0.00 0.00 71 1016.4
20260901080534 25 169 4.8 11.3 0.00 0.00 0.00 71 1016.4
20260901080433 25 165 4.8 11.3 0.00 0.00 0.00 71 1016.4
20260901080330 25 162 6.4 11.3 0.00 0.00 0.00 71 1016.4
20260901080240 25 158 6.4 11.3 0.00 0.00 0.00 71 1016.4
20260901080150 25 157 6.4 11.3 0.00 0.00 0.00 71 1016.4
20260901080027 25 152 8.0 11.3 0.00 0.00 0.00 71 1016.4
20260901075930 25 140 4.8 11.3 0.00 0.00 0.00 71 1016.4
20260901075829 25 147 9.7 11.3 0.00 0.00 0.00 71 1016.4
20260901075727 25 154 8.0 11.3 0.00 0.00 0.00 71 1016.4
20260901075625 25 151 9.7 11.3 0.00 0.00 0.00 71 1016.4
20260901075524 25 145 8.0 11.3 0.00 0.00 0.00 71 1016.4
20260901075443 25 144 9.7 12.9 0.00 0.00 0.00 71 1016.4
20260901075342 25 144 8.0 12.9 0.00 0.00 0.00 71 1016.4
20260901075300 25 147 8.0 12.9 0.00 0.00 0.00 71 1016.4
20260901075143 25 144 8.0 12.9 0.00 0.00 0.00 70 1016.4
20260901075042 25 144 8.0 12.9 0.00 0.00 0.00 70 1016.4
20260901074941 25 145 8.0 12.9 0.00 0.00 0.00 70 1016.4
20260901074840 25 143 9.7 12.9 0.00 0.00 0.00 71 1016.4
20260901074740 25 150 8.0 12.9 0.00 0.00 0.00 71 1016.4
20260901074710 25 144 4.8 12.9 0.00 0.00 0.00 71 1016.4
20260901074526 25 130 6.4 12.9 0.00 0.00 0.00 71 1016.4
20260901074448 25 110 6.4 12.9 0.00 0.00 0.00 71 1016.4
20260901074405 25 143 6.4 12.9 0.00 0.00 0.00 71 1016.4
20260901074242 25 140 6.4 12.9 0.00 0.00 0.00 71 1016.4
20260901074141 25 137 4.8 11.3 0.00 0.00 0.00 71 1016.4
20260901074038 25 151 4.8 11.3 0.00 0.00 0.00 71 1016.4
20260901073936 25 148 9.7 11.3 0.00 0.00 0.00 71 1016.4
20260901073835 25 144 8.0 11.3 0.00 0.00 0.00 70 1016.4
20260901073736 25 144 8.0 11.3 0.00 0.00 0.00 71 1016.4
20260901073658 25 137 8.0 11.3 0.00 0.00 0.00 71 1016.4
20260901073535 25 131 9.7 11.3 0.00 0.00 0.00 71 1016.4
20260901073434 25 131 8.0 11.3 0.00 0.00 0.00 71 1016.4
20260901073352 25 121 6.4 11.3 0.00 0.00 0.00 70 1016.4
20260901073242 25 114 6.4 11.3 0.00 0.00 0.00 71 1016.4
20260901073153 25 109 8.0 11.3 0.00 0.00 0.00 71 1016.4
20260901073049 25 138 6.4 11.3 0.00 0.00 0.00 71 1016.4
20260901072926 25 137 6.4 11.3 0.00 0.00 0.00 71 1016.4
20260901072843 25 141 6.4 11.3 0.00 0.00 0.00 71 1016.4
20260901072725 25 126 6.4 11.3 0.00 0.00 0.00 71 1016.4
20260901072642 25 143 6.4 11.3 0.00 0.00 0.00 71 1016.4
20260901072541 25 145 6.4 11.3 0.00 0.00 0.00 71 1016.4
20260901072439 25 145 8.0 11.3 0.00 0.00 0.00 71 1016.4
20260901072338 25 141 8.0 11.3 0.00 0.00 0.00 70 1016.4
20260901072256 25 144 8.0 11.3 0.00 0.00 0.00 70 1016.4
20260901072132 25 145 8.0 11.3 0.00 0.00 0.00 70 1016.4
20260901072029 25 141 8.0 11.3 0.00 0.00 0.00 70 1016.4
20260901071931 25 137 6.4 11.3 0.00 0.00 0.00 70 1016.4
20260901071830 25 136 6.4 11.3 0.00 0.00 0.00 70 1016.4
20260901071728 25 134 6.4 11.3 0.00 0.00 0.00 70 1016.4
20260901071658 25 121 8.0 11.3 0.00 0.00 0.00 71 1016.4
20260901071535 25 143 8.0 11.3 0.00 0.00 0.00 71 1016.4
20260901071434 25 143 8.0 11.3 0.00 0.00 0.00 71 1016.4
20260901071332 25 134 6.4 11.3 0.00 0.00 0.00 71 1016.4
20260901071234 25 143 8.0 11.3 0.00 0.00 0.00 71 1016.6
20260901071132 25 144 8.0 11.3 0.00 0.00 0.00 71 1016.6
20260901071031 25 145 8.0 11.3 0.00 0.00 0.00 71 1016.6
20260901070930 25 144 8.0 11.3 0.00 0.00 0.00 71 1016.6
20260901070828 25 141 6.4 11.3 0.00 0.00 0.00 71 1016.6
20260901070727 25 145 6.4 11.3 0.00 0.00 0.00 71 1016.6
20260901070630 25 148 8.0 11.3 0.00 0.00 0.00 71 1016.6
20260901070529 25 147 6.4 12.9 0.00 0.00 0.00 71 1016.6
20260901070427 25 147 6.4 12.9 0.00 0.00 0.00 70 1016.6
20260901070326 25 147 6.4 12.9 0.00 0.00 0.00 71 1016.6
20260901070225 25 147 8.0 12.9 0.00 0.00 0.00 71 1016.6
20260901070157 25 143 6.4 12.9 0.00 0.00 0.00 71 1016.6
20260901070034 25 144 4.8 12.9 0.00 0.00 0.00 71 1016.6
20260901065935 25 144 8.0 12.9 0.00 0.00 0.00 71 1016.6
20260901065838 25 148 8.0 12.9 0.00 0.00 0.00 70 1016.6
20260901065738 25 152 8.0 12.9 0.00 0.00 0.00 70 1016.6
20260901065640 25 151 6.4 12.9 0.00 0.00 0.00 70 1016.6
20260901065538 25 154 4.8 12.9 0.00 0.00 0.00 70 1016.6
20260901065436 25 150 3.2 12.9 0.00 0.00 0.00 71 1016.6
20260901065335 25 150 6.4 12.9 0.00 0.00 0.00 71 1016.6
20260901065237 25 145 6.4 12.9 0.00 0.00 0.00 71 1016.6
20260901065135 25 150 9.7 12.9 0.00 0.00 0.00 70 1016.6
20260901065034 25 143 8.0 12.9 0.00 0.00 0.00 71 1016.6
20260901064932 25 155 6.4 12.9 0.00 0.00 0.00 71 1016.6
20260901064830 25 145 9.7 12.9 0.00 0.00 0.00 71 1016.6
20260901064729 25 148 8.0 11.3 0.00 0.00 0.00 71 1016.6
20260901064659 25 150 9.7 11.3 0.00 0.00 0.00 71 1016.6
20260901064557 25 144 6.4 11.3 0.00 0.00 0.00 71 1016.6
20260901064458 25 151 6.4 11.3 0.00 0.00 0.00 71 1016.6
20260901064335 25 151 8.0 11.3 0.00 0.00 0.00 71 1016.6
20260901064235 25 150 8.0 11.3 0.00 0.00 0.00 71 1016.6
20260901064133 25 144 8.0 11.3 0.00 0.00 0.00 71 1016.6
20260901064031 25 143 8.0 11.3 0.00 0.00 0.00 71 1016.6
20260901063929 25 141 8.0 11.3 0.00 0.00 0.00 71 1016.6
20260901063828 25 143 6.4 11.3 0.00 0.00 0.00 71 1016.6
20260901063734 25 144 6.4 11.3 0.00 0.00 0.00 71 1016.6
20260901063633 25 141 8.0 11.3 0.00 0.00 0.00 72 1016.6
20260901063531 25 143 3.2 11.3 0.00 0.00 0.00 72 1016.6
20260901063430 25 143 6.4 11.3 0.00 0.00 0.00 71 1016.6
20260901063329 25 147 8.0 11.3 0.00 0.00 0.00 71 1016.6
20260901063238 25 141 8.0 11.3 0.00 0.00 0.00 71 1016.6
20260901063148 25 144 8.0 11.3 0.00 0.00 0.00 71 1016.6
20260901063028 25 141 4.8 11.3 0.00 0.00 0.00 71 1016.6
20260901062926 25 136 4.8 9.7 0.00 0.00 0.00 71 1016.6
20260901062825 25 134 8.0 9.7 0.00 0.00 0.00 71 1016.6
20260901062743 25 136 8.0 9.7 0.00 0.00 0.00 70 1016.7
20260901062701 25 138 6.4 9.7 0.00 0.00 0.00 70 1016.7
20260901062539 25 133 6.4 9.7 0.00 0.00 0.00 71 1016.7
20260901062437 25 141 4.8 9.7 0.00 0.00 0.00 71 1016.7
20260901062335 25 137 8.0 9.7 0.00 0.00 0.00 71 1016.7
20260901062239 25 137 6.4 9.7 0.00 0.00 0.00 71 1016.7
20260901062157 25 136 6.4 9.7 0.00 0.00 0.00 71 1016.7
20260901062034 25 138 4.8 9.7 0.00 0.00 0.00 71 1016.7
20260901061933 25 138 3.2 9.7 0.00 0.00 0.00 71 1016.7
20260901061831 25 140 4.8 9.7 0.00 0.00 0.00 71 1016.7
20260901061740 25 140 6.4 9.7 0.00 0.00 0.00 71 1016.7
20260901061648 25 136 6.4 9.7 0.00 0.00 0.00 70 1016.7
20260901061526 25 136 4.8 9.7 0.00 0.00 0.00 70 1016.7
20260901061428 25 138 8.0 9.7 0.00 0.00 0.00 70 1016.7
20260901061325 25 127 6.4 9.7 0.00 0.00 0.00 71 1016.7
20260901061245 25 141 6.4 9.7 0.00 0.00 0.00 71 1016.8
20260901061141 25 136 6.4 9.7 0.00 0.00 0.00 71 1016.8
20260901061040 25 137 4.8 9.7 0.00 0.00 0.00 71 1016.8
20260901060940 25 134 6.4 11.3 0.00 0.00 0.00 71 1016.8
20260901060859 25 141 8.0 11.3 0.00 0.00 0.00 70 1016.8
20260901060757 25 138 8.0 11.3 0.00 0.00 0.00 70 1016.8
20260901060634 25 138 6.4 11.3 0.00 0.00 0.00 70 1016.8
20260901060536 25 133 4.8 11.3 0.00 0.00 0.00 70 1016.8
20260901060434 25 137 6.4 12.9 0.00 0.00 0.00 70 1016.8
20260901060333 25 137 4.8 12.9 0.00 0.00 0.00 70 1016.8
20260901060242 25 136 6.4 12.9 0.00 0.00 0.00 70 1016.8
20260901060152 25 137 6.4 12.9 0.00 0.00 0.00 70 1016.8
20260901060029 25 134 6.4 12.9 0.00 0.00 0.00 71 1016.8
20260901055927 25 136 8.0 12.9 0.00 0.00 0.00 71 1016.8
20260901055830 25 134 4.8 12.9 0.00 0.00 0.00 71 1016.8
20260901055748 25 130 6.4 12.9 0.00 0.00 0.00 71 1016.8
20260901055646 25 126 9.7 12.9 0.00 0.00 0.00 71 1016.8
20260901055544 25 127 8.0 11.3 0.00 0.00 0.00 71 1016.8
20260901055502 25 126 6.4 11.3 0.00 0.00 0.00 71 1016.8
20260901055340 25 128 4.8 11.3 0.00 0.00 0.00 71 1016.8
20260901055238 25 126 4.8 11.3 0.00 0.00 0.00 71 1016.8
20260901055136 25 130 8.0 11.3 0.00 0.00 0.00 71 1016.8
20260901055035 25 136 6.4 9.7 0.00 0.00 0.00 71 1016.8
20260901054958 25 130 4.8 9.7 0.00 0.00 0.00 71 1016.8
20260901054856 25 133 4.8 9.7 0.00 0.00 0.00 70 1016.8
20260901054733 25 131 6.4 9.7 0.00 0.00 0.00 70 1016.8
20260901054704 25 133 6.4 9.7 0.00 0.00 0.00 70 1016.8
20260901054542 25 133 6.4 9.7 0.00 0.00 0.00 70 1016.8
20260901054440 25 136 4.8 9.7 0.00 0.00 0.00 70 1016.8
20260901054338 25 131 6.4 9.7 0.00 0.00 0.00 70 1016.8
20260901054235 25 133 8.0 9.7 0.00 0.00 0.00 70 1016.9
20260901054153 25 130 6.4 9.7 0.00 0.00 0.00 70 1016.9
20260901054035 25 130 4.8 9.7 0.00 0.00 0.00 70 1016.9
20260901053934 25 130 6.4 9.7 0.00 0.00 0.00 70 1016.9
20260901053832 25 130 4.8 9.7 0.00 0.00 0.00 70 1016.9
20260901053731 25 130 4.8 9.7 0.00 0.00 0.00 70 1016.9
20260901053629 25 137 6.4 9.7 0.00 0.00 0.00 70 1016.9
20260901053527 25 136 4.8 9.7 0.00 0.00 0.00 70 1016.9
20260901053425 25 137 4.8 9.7 0.00 0.00 0.00 70 1016.9
20260901053329 25 136 8.0 9.7 0.00 0.00 0.00 70 1016.9
20260901053239 25 137 6.4 9.7 0.00 0.00 0.00 70 1016.9
20260901053149 25 137 6.4 9.7 0.00 0.00 0.00 70 1016.9
20260901053026 25 138 6.4 9.7 0.00 0.00 0.00 70 1016.9
20260901052924 25 134 4.8 9.7 0.00 0.00 0.00 70 1016.9
20260901052843 25 137 4.8 9.7 0.00 0.00 0.00 70 1016.9
20260901052742 25 138 4.8 9.7 0.00 0.00 0.00 70 1016.9
20260901052625 25 136 3.2 9.7 0.00 0.00 0.00 70 1016.9
20260901052543 25 138 3.2 9.7 0.00 0.00 0.00 70 1016.9
20260901052501 25 138 4.8 9.7 0.00 0.00 0.00 70 1016.9
20260901052358 25 138 6.4 9.7 0.00 0.00 0.00 70 1016.9
20260901052238 25 137 6.4 9.7 0.00 0.00 0.00 70 1016.9
20260901052136 25 136 6.4 9.7 0.00 0.00 0.00 70 1016.9
20260901052034 25 136 6.4 9.7 0.00 0.00 0.00 70 1016.9
20260901051951 25 137 3.2 9.7 0.00 0.00 0.00 70 1016.9
20260901051829 25 136 6.4 9.7 0.00 0.00 0.00 70 1016.9
20260901051751 25 134 8.0 9.7 0.00 0.00 0.00 70 1016.9
20260901051720 25 136 6.4 9.7 0.00 0.00 0.00 70 1016.9
20260901051536 25 136 6.4 9.7 0.00 0.00 0.00 70 1016.9
20260901051435 25 136 3.2 8.0 0.00 0.00 0.00 70 1016.9
20260901051333 25 138 6.4 8.0 0.00 0.00 0.00 70 1016.9
20260901051234 25 138 4.8 9.7 0.00 0.00 0.00 70 1016.9
20260901051132 25 138 6.4 9.7 0.00 0.00 0.00 70 1016.9
20260901051034 25 141 4.8 9.7 0.00 0.00 0.00 70 1016.9
20260901050934 25 143 4.8 9.7 0.00 0.00 0.00 70 1016.9
20260901050853 25 141 4.8 9.7 0.00 0.00 0.00 70 1016.9
20260901050729 25 141 4.8 9.7 0.00 0.00 0.00 70 1016.9
20260901050627 25 143 6.4 9.7 0.00 0.00 0.00 70 1016.9
20260901050526 25 143 4.8 9.7 0.00 0.00 0.00 70 1016.9
20260901050425 25 144 4.8 9.7 0.00 0.00 0.00 70 1016.9
20260901050327 25 144 4.8 9.7 0.00 0.00 0.00 70 1016.9
20260901050237 25 144 4.8 9.7 0.00 0.00 0.00 70 1016.9
20260901050148 25 141 6.4 9.7 0.00 0.00 0.00 70 1016.9
20260901050044 25 138 4.8 8.0 0.00 0.00 0.00 70 1016.9
20260901045942 25 140 4.8 9.7 0.00 0.00 0.00 70 1016.9
20260901045840 25 141 4.8 9.7 0.00 0.00 0.00 70 1016.9
20260901045737 25 140 4.8 9.7 0.00 0.00 0.00 70 1016.9
20260901045636 25 138 4.8 9.7 0.00 0.00 0.00 70 1016.9
20260901045540 25 138 6.4 9.7 0.00 0.00 0.00 70 1016.9
20260901045439 25 137 8.0 9.7 0.00 0.00 0.00 70 1016.9
20260901045356 25 141 6.4 9.7 0.00 0.00 0.00 70 1016.9
20260901045234 25 141 4.8 9.7 0.00 0.00 0.00 70 1016.9
20260901045132 25 143 8.0 9.7 0.00 0.00 0.00 70 1016.9
20260901045032 25 140 6.4 9.7 0.00 0.00 0.00 69 1016.9
20260901044931 25 140 4.8 9.7 0.00 0.00 0.00 70 1016.9
20260901044855 25 143 6.4 9.7 0.00 0.00 0.00 70 1016.9
20260901044743 25 145 4.8 9.7 0.00 0.00 0.00 70 1016.9
20260901044651 25 140 4.8 9.7 0.00 0.00 0.00 70 1016.9
20260901044528 25 143 4.8 9.7 0.00 0.00 0.00 70 1016.9
20260901044430 25 143 8.0 9.7 0.00 0.00 0.00 70 1016.9
20260901044349 25 137 4.8 9.7 0.00 0.00 0.00 70 1016.9
20260901044225 25 141 8.0 9.7 0.00 0.00 0.00 70 1016.8
20260901044143 25 141 4.8 9.7 0.00 0.00 0.00 70 1016.8
20260901044045 25 140 3.2 9.7 0.00 0.00 0.00 70 1016.8
20260901043942 25 138 3.2 8.0 0.00 0.00 0.00 70 1016.8
20260901043844 25 140 4.8 9.7 0.00 0.00 0.00 71 1016.8
20260901043740 25 137 6.4 9.7 0.00 0.00 0.00 71 1016.8
20260901043700 25 138 6.4 9.7 0.00 0.00 0.00 71 1016.8
20260901043538 25 136 6.4 11.3 0.00 0.00 0.00 71 1016.8
20260901043436 25 138 4.8 11.3 0.00 0.00 0.00 71 1016.8
20260901043333 25 138 6.4 11.3 0.00 0.00 0.00 71 1016.8
20260901043236 25 137 6.4 11.3 0.00 0.00 0.00 70 1016.8
20260901043207 25 140 4.8 11.3 0.00 0.00 0.00 70 1016.8
20260901043103 25 137 6.4 11.3 0.00 0.00 0.00 70 1016.8
20260901042940 25 133 4.8 11.3 0.00 0.00 0.00 70 1016.8
20260901042839 25 123 4.8 11.3 0.00 0.00 0.00 70 1016.8
20260901042737 25 124 6.4 11.3 0.00 0.00 0.00 70 1016.8
20260901042636 25 121 6.4 11.3 0.00 0.00 0.00 70 1016.8
20260901042532 25 137 4.8 9.7 0.00 0.00 0.00 70 1016.8
20260901042433 25 138 3.2 9.7 0.00 0.00 0.00 70 1016.8
20260901042333 25 137 4.8 9.7 0.00 0.00 0.00 70 1016.8
20260901042234 25 137 8.0 9.7 0.00 0.00 0.00 71 1016.8
20260901042133 25 134 6.4 9.7 0.00 0.00 0.00 71 1016.8
20260901042031 25 141 6.4 9.7 0.00 0.00 0.00 71 1016.8
20260901041930 25 134 4.8 9.7 0.00 0.00 0.00 71 1016.8
20260901041829 25 137 4.8 9.7 0.00 0.00 0.00 71 1016.8
20260901041731 25 136 6.4 9.7 0.00 0.00 0.00 71 1016.8
20260901041701 25 137 8.0 9.7 0.00 0.00 0.00 71 1016.8
20260901041540 25 134 6.4 9.7 0.00 0.00 0.00 71 1016.8
20260901041440 25 140 4.8 9.7 0.00 0.00 0.00 71 1016.8
20260901041340 25 138 6.4 9.7 0.00 0.00 0.00 71 1016.8
20260901041239 25 131 4.8 9.7 0.00 0.00 0.00 71 1016.9
20260901041137 25 140 4.8 9.7 0.00 0.00 0.00 71 1016.9
20260901041040 25 140 4.8 9.7 0.00 0.00 0.00 71 1016.9
20260901040939 25 140 6.4 9.7 0.00 0.00 0.00 71 1016.9
20260901040836 25 140 4.8 9.7 0.00 0.00 0.00 71 1016.9
20260901040734 25 137 4.8 9.7 0.00 0.00 0.00 71 1016.9
20260901040633 25 140 4.8 9.7 0.00 0.00 0.00 71 1016.9
20260901040552 25 133 6.4 9.7 0.00 0.00 0.00 71 1016.9
20260901040429 25 136 8.0 9.7 0.00 0.00 0.00 72 1016.9
20260901040332 25 136 6.4 9.7 0.00 0.00 0.00 71 1016.9
20260901040202 25 136 6.4 9.7 0.00 0.00 0.00 71 1016.9
20260901040059 25 134 6.4 9.7 0.00 0.00 0.00 71 1016.9
20260901035937 25 134 4.8 9.7 0.00 0.00 0.00 71 1016.9
20260901035835 25 131 6.4 9.7 0.00 0.00 0.00 71 1016.9
20260901035733 25 134 4.8 9.7 0.00 0.00 0.00 71 1016.9
20260901035637 25 136 4.8 9.7 0.00 0.00 0.00 71 1016.9
20260901035535 25 136 4.8 9.7 0.00 0.00 0.00 70 1016.9
20260901035433 25 134 4.8 9.7 0.00 0.00 0.00 70 1016.9
20260901035332 25 136 6.4 9.7 0.00 0.00 0.00 70 1016.9
20260901035230 25 136 4.8 9.7 0.00 0.00 0.00 71 1016.9
20260901035129 25 136 6.4 9.7 0.00 0.00 0.00 71 1016.9
20260901035027 25 131 6.4 9.7 0.00 0.00 0.00 70 1016.9
20260901034929 25 136 6.4 9.7 0.00 0.00 0.00 70 1016.9
20260901034848 25 137 4.8 9.7 0.00 0.00 0.00 70 1016.9
20260901034726 25 138 6.4 9.7 0.00 0.00 0.00 71 1016.9
20260901034656 25 137 6.4 9.7 0.00 0.00 0.00 71 1016.9
20260901034532 25 138 6.4 9.7 0.00 0.00 0.00 70 1016.9
20260901034452 25 140 6.4 9.7 0.00 0.00 0.00 71 1016.9
20260901034330 25 138 4.8 8.0 0.00 0.00 0.00 71 1016.9
20260901034229 25 140 4.8 8.0 0.00 0.00 0.00 70 1016.9
20260901034131 25 141 4.8 8.0 0.00 0.00 0.00 70 1016.9
20260901034029 25 141 3.2 8.0 0.00 0.00 0.00 70 1016.9
20260901033928 25 141 4.8 8.0 0.00 0.00 0.00 70 1016.9
20260901033827 25 141 4.8 8.0 0.00 0.00 0.00 70 1016.9
20260901033725 25 140 3.2 8.0 0.00 0.00 0.00 70 1016.9
20260901033642 25 137 4.8 8.0 0.00 0.00 0.00 70 1016.9
20260901033601 25 140 4.8 8.0 0.00 0.00 0.00 70 1016.9
20260901033443 25 140 4.8 8.0 0.00 0.00 0.00 70 1016.9
20260901033341 25 140 6.4 8.0 0.00 0.00 0.00 70 1016.9
20260901033240 25 138 6.4 8.0 0.00 0.00 0.00 70 1016.9
20260901033211 25 138 4.8 8.0 0.00 0.00 0.00 70 1016.9
20260901033047 25 138 6.4 8.0 0.00 0.00 0.00 70 1016.9
20260901032945 25 137 4.8 8.0 0.00 0.00 0.00 70 1016.9
20260901032904 25 136 4.8 8.0 0.00 0.00 0.00 70 1016.9
20260901032801 25 136 4.8 8.0 0.00 0.00 0.00 70 1017.0
20260901032638 25 136 4.8 8.0 0.00 0.00 0.00 70 1017.0
20260901032540 25 136 4.8 8.0 0.00 0.00 0.00 70 1017.0
20260901032438 25 133 4.8 8.0 0.00 0.00 0.00 70 1017.0
20260901032337 25 136 4.8 8.0 0.00 0.00 0.00 70 1017.0
20260901032236 25 136 4.8 8.0 0.00 0.00 0.00 70 1017.0
20260901032136 25 136 4.8 8.0 0.00 0.00 0.00 70 1017.0
20260901032035 25 136 4.8 8.0 0.00 0.00 0.00 70 1017.0
20260901031933 25 136 6.4 8.0 0.00 0.00 0.00 70 1017.0
20260901031856 25 134 4.8 8.0 0.00 0.00 0.00 70 1017.0
20260901031814 25 136 4.8 8.0 0.00 0.00 0.00 70 1017.0
20260901031723 25 136 6.4 8.0 0.00 0.00 0.00 70 1017.0
20260901031540 25 136 6.4 8.0 0.00 0.00 0.00 70 1017.0
20260901031439 25 136 4.8 8.0 0.00 0.00 0.00 70 1017.0
20260901031338 25 138 4.8 8.0 0.00 0.00 0.00 70 1017.0
20260901031237 25 136 6.4 8.0 0.00 0.00 0.00 70 1017.1
20260901031136 25 137 4.8 8.0 0.00 0.00 0.00 70 1017.1
20260901031038 25 136 4.8 8.0 0.00 0.00 0.00 70 1017.1
20260901030957 25 137 4.8 8.0 0.00 0.00 0.00 70 1017.1
20260901030837 25 137 4.8 8.0 0.00 0.00 0.00 70 1017.1
20260901030735 25 137 3.2 8.0 0.00 0.00 0.00 70 1017.1
20260901030652 25 134 3.2 8.0 0.00 0.00 0.00 71 1017.1
20260901030528 25 137 4.8 8.0 0.00 0.00 0.00 71 1017.1
20260901030428 25 137 3.2 8.0 0.00 0.00 0.00 70 1017.1
20260901030330 25 137 3.2 8.0 0.00 0.00 0.00 70 1017.1
20260901030229 25 133 3.2 8.0 0.00 0.00 0.00 71 1017.1
20260901030200 25 137 3.2 8.0 0.00 0.00 0.00 71 1017.1
20260901030038 25 137 3.2 8.0 0.00 0.00 0.00 71 1017.1
20260901025936 25 137 3.2 8.0 0.00 0.00 0.00 70 1017.1
20260901025835 25 137 1.6 8.0 0.00 0.00 0.00 71 1017.1
20260901025735 25 138 4.8 8.0 0.00 0.00 0.00 71 1017.1
20260901025638 25 136 4.8 8.0 0.00 0.00 0.00 71 1017.1
20260901025537 25 138 3.2 8.0 0.00 0.00 0.00 70 1017.1
20260901025435 25 138 4.8 8.0 0.00 0.00 0.00 71 1017.1
20260901025334 25 136 4.8 8.0 0.00 0.00 0.00 71 1017.1
20260901025233 25 138 4.8 8.0 0.00 0.00 0.00 71 1017.1
20260901025131 25 138 4.8 8.0 0.00 0.00 0.00 71 1017.1
20260901025030 25 138 3.2 8.0 0.00 0.00 0.00 71 1017.1
20260901024954 25 138 4.8 8.0 0.00 0.00 0.00 71 1017.1
20260901024832 25 138 3.2 8.0 0.00 0.00 0.00 71 1017.1
20260901024741 25 137 6.4 8.0 0.00 0.00 0.00 71 1017.1
20260901024650 25 138 4.8 8.0 0.00 0.00 0.00 71 1017.1
20260901024528 25 137 4.8 8.0 0.00 0.00 0.00 71 1017.1
20260901024446 25 136 4.8 8.0 0.00 0.00 0.00 71 1017.1
20260901024324 25 136 4.8 8.0 0.00 0.00 0.00 71 1017.1
20260901024242 25 136 4.8 8.0 0.00 0.00 0.00 71 1016.9
20260901024124 25 134 4.8 8.0 0.00 0.00 0.00 71 1016.9
20260901024044 25 134 4.8 8.0 0.00 0.00 0.00 71 1016.9
20260901024002 25 134 4.8 9.7 0.00 0.00 0.00 71 1016.9
20260901023900 25 134 3.2 9.7 0.00 0.00 0.00 71 1016.9
20260901023737 25 136 3.2 9.7 0.00 0.00 0.00 71 1016.9
20260901023634 25 136 4.8 9.7 0.00 0.00 0.00 71 1016.9
20260901023534 25 134 4.8 9.7 0.00 0.00 0.00 71 1016.9
20260901023451 25 137 3.2 9.7 0.00 0.00 0.00 71 1016.9
20260901023333 25 136 4.8 9.7 0.00 0.00 0.00 71 1016.9
20260901023252 25 136 4.8 9.7 0.00 0.00 0.00 71 1016.9
20260901023223 25 137 6.4 9.7 0.00 0.00 0.00 71 1016.9
20260901023038 25 134 4.8 9.7 0.00 0.00 0.00 71 1016.9
20260901022938 25 137 4.8 9.7 0.00 0.00 0.00 71 1016.9
20260901022836 25 137 4.8 9.7 0.00 0.00 0.00 71 1016.9
20260901022735 25 137 4.8 9.7 0.00 0.00 0.00 71 1016.8
20260901022634 25 136 4.8 9.7 0.00 0.00 0.00 71 1016.8
20260901022536 25 134 6.4 9.7 0.00 0.00 0.00 71 1016.8
20260901022436 25 137 6.4 9.7 0.00 0.00 0.00 71 1016.8
20260901022336 25 134 6.4 9.7 0.00 0.00 0.00 71 1016.8
20260901022236 25 138 6.4 9.7 0.00 0.00 0.00 71 1016.8
20260901022135 25 138 6.4 9.7 0.00 0.00 0.00 72 1016.8
20260901022034 25 140 6.4 9.7 0.00 0.00 0.00 72 1016.8
20260901021953 25 138 4.8 8.0 0.00 0.00 0.00 71 1016.8
20260901021834 25 138 6.4 8.0 0.00 0.00 0.00 71 1016.8
20260901021753 25 141 4.8 8.0 0.00 0.00 0.00 71 1016.8
20260901021723 25 140 3.2 8.0 0.00 0.00 0.00 72 1016.8
20260901021539 25 141 6.4 8.0 0.00 0.00 0.00 72 1016.8
20260901021437 26 144 4.8 8.0 0.00 0.00 0.00 72 1016.8
20260901021335 26 144 4.8 8.0 0.00 0.00 0.00 72 1016.8
20260901021234 26 145 4.8 8.0 0.00 0.00 0.00 72 1016.7
20260901021136 26 144 3.2 8.0 0.00 0.00 0.00 72 1016.7
20260901021054 26 147 4.8 8.0 0.00 0.00 0.00 72 1016.7
20260901020932 26 148 4.8 8.0 0.00 0.00 0.00 71 1016.7
20260901020831 26 148 4.8 8.0 0.00 0.00 0.00 71 1016.7
20260901020729 26 148 4.8 6.4 0.00 0.00 0.00 71 1016.7
20260901020628 26 148 4.8 8.0 0.00 0.00 0.00 71 1016.7
20260901020549 26 147 4.8 8.0 0.00 0.00 0.00 71 1016.7
20260901020426 26 147 4.8 8.0 0.00 0.00 0.00 71 1016.7
20260901020349 26 150 3.2 8.0 0.00 0.00 0.00 72 1016.7
20260901020247 26 150 4.8 8.0 0.00 0.00 0.00 72 1016.7
20260901020217 26 151 4.8 8.0 0.00 0.00 0.00 72 1016.7
20260901020035 26 150 4.8 8.0 0.00 0.00 0.00 72 1016.7
20260901015935 26 150 4.8 8.0 0.00 0.00 0.00 73 1016.7
20260901015836 26 150 4.8 8.0 0.00 0.00 0.00 72 1016.7
20260901015736 26 151 4.8 8.0 0.00 0.00 0.00 72 1016.5
20260901015634 26 150 6.4 8.0 0.00 0.00 0.00 72 1016.5
20260901015538 26 148 4.8 8.0 0.00 0.00 0.00 72 1016.5
20260901015457 26 150 4.8 8.0 0.00 0.00 0.00 71 1016.5
20260901015335 26 148 6.4 8.0 0.00 0.00 0.00 72 1016.5
20260901015233 26 148 6.4 8.0 0.00 0.00 0.00 72 1016.5
20260901015132 26 148 4.8 8.0 0.00 0.00 0.00 72 1016.5
20260901015031 26 147 3.2 8.0 0.00 0.00 0.00 72 1016.5
20260901014949 26 148 4.8 8.0 0.00 0.00 0.00 72 1016.5
20260901014846 26 147 4.8 8.0 0.00 0.00 0.00 72 1016.5
20260901014728 26 147 6.4 8.0 0.00 0.00 0.00 72 1016.5
20260901014657 26 148 4.8 8.0 0.00 0.00 0.00 72 1016.5
20260901014534 26 148 6.4 8.0 0.00 0.00 0.00 72 1016.5
20260901014432 26 147 4.8 8.0 0.00 0.00 0.00 71 1016.5
20260901014329 26 147 4.8 6.4 0.00 0.00 0.00 70 1016.5
20260901014228 26 147 4.8 8.0 0.00 0.00 0.00 70 1016.3
20260901014148 26 145 4.8 8.0 0.00 0.00 0.00 70 1016.3
20260901014025 26 148 3.2 8.0 0.00 0.00 0.00 71 1016.3
20260901013928 26 150 4.8 8.0 0.00 0.00 0.00 71 1016.3
20260901013826 26 148 3.2 8.0 0.00 0.00 0.00 71 1016.3
20260901013746 26 148 3.2 8.0 0.00 0.00 0.00 71 1016.3
20260901013624 26 148 4.8 8.0 0.00 0.00 0.00 71 1016.3
20260901013543 26 147 4.8 8.0 0.00 0.00 0.00 71 1016.3
20260901013500 26 148 4.8 8.0 0.00 0.00 0.00 71 1016.3
20260901013337 26 148 4.8 8.0 0.00 0.00 0.00 70 1016.3
20260901013237 26 148 4.8 6.4 0.00 0.00 0.00 70 1016.3
20260901013211 26 148 4.8 6.4 0.00 0.00 0.00 69 1016.3
20260901013047 26 147 3.2 4.8 0.00 0.00 0.00 69 1016.3
20260901012924 26 148 4.8 4.8 0.00 0.00 0.00 69 1016.3
20260901012842 26 148 3.2 4.8 0.00 0.00 0.00 69 1016.3
20260901012741 26 148 3.2 4.8 0.00 0.00 0.00 69 1016.2
20260901012640 26 148 3.2 4.8 0.00 0.00 0.00 69 1016.2
20260901012537 26 148 3.2 4.8 0.00 0.00 0.00 69 1016.2
20260901012437 26 147 3.2 4.8 0.00 0.00 0.00 69 1016.2
20260901012339 26 148 3.2 4.8 0.00 0.00 0.00 69 1016.2
20260901012237 26 148 3.2 6.4 0.00 0.00 0.00 69 1016.2
20260901012155 26 148 3.2 6.4 0.00 0.00 0.00 69 1016.2
20260901012034 26 145 3.2 6.4 0.00 0.00 0.00 69 1016.2
20260901011932 26 147 3.2 6.4 0.00 0.00 0.00 69 1016.2
20260901011830 26 145 4.8 8.0 0.00 0.00 0.00 69 1016.2
20260901011702 26 147 4.8 8.0 0.00 0.00 0.00 69 1016.2
20260901011601 26 147 4.8 8.0 0.00 0.00 0.00 69 1016.2
20260901011439 26 148 4.8 8.0 0.00 0.00 0.00 69 1016.2
20260901011338 26 148 4.8 8.0 0.00 0.00 0.00 70 1016.2
20260901011236 26 148 3.2 8.0 0.00 0.00 0.00 69 1016.2
20260901011135 26 147 4.8 8.0 0.00 0.00 0.00 69 1016.2
20260901011054 26 148 4.8 8.0 0.00 0.00 0.00 69 1016.2
20260901010931 26 148 3.2 8.0 0.00 0.00 0.00 69 1016.2
20260901010853 26 150 4.8 8.0 0.00 0.00 0.00 69 1016.2
20260901010731 26 150 4.8 8.0 0.00 0.00 0.00 69 1016.2
20260901010631 26 150 4.8 8.0 0.00 0.00 0.00 68 1016.2
20260901010530 26 150 4.8 8.0 0.00 0.00 0.00 68 1016.2
20260901010427 26 151 4.8 8.0 0.00 0.00 0.00 68 1016.2
20260901010326 26 150 4.8 8.0 0.00 0.00 0.00 68 1016.2
20260901010224 26 151 4.8 8.0 0.00 0.00 0.00 68 1016.2
20260901010158 26 150 3.2 8.0 0.00 0.00 0.00 68 1016.2
20260901010036 26 151 4.8 8.0 0.00 0.00 0.00 68 1016.2
20260901005935 26 150 4.8 8.0 0.00 0.00 0.00 68 1016.2
20260901005833 26 150 6.4 8.0 0.00 0.00 0.00 68 1016.2
20260901005732 26 152 4.8 8.0 0.00 0.00 0.00 68 1016.0
20260901005630 26 151 6.4 8.0 0.00 0.00 0.00 68 1016.0
20260901005529 26 152 3.2 8.0 0.00 0.00 0.00 68 1016.0
20260901005451 26 152 6.4 8.0 0.00 0.00 0.00 68 1016.0
20260901005328 26 154 4.8 8.0 0.00 0.00 0.00 68 1016.0
20260901005228 26 157 4.8 8.0 0.00 0.00 0.00 68 1016.0
20260901005128 26 158 3.2 8.0 0.00 0.00 0.00 68 1016.0
20260901005026 26 155 4.8 8.0 0.00 0.00 0.00 68 1016.0
20260901004945 26 157 6.4 8.0 0.00 0.00 0.00 68 1016.0
20260901004904 26 157 6.4 8.0 0.00 0.00 0.00 68 1016.0
20260901004753 26 157 4.8 8.0 0.00 0.00 0.00 68 1016.0
20260901004646 26 158 4.8 8.0 0.00 0.00 0.00 68 1016.0
20260901004525 26 160 4.8 8.0 0.00 0.00 0.00 68 1016.0
20260901004427 26 161 4.8 8.0 0.00 0.00 0.00 68 1016.0
20260901004345 26 162 4.8 8.0 0.00 0.00 0.00 68 1016.0
20260901004242 27 164 4.8 8.0 0.00 0.00 0.00 68 1015.9
20260901004140 27 165 4.8 6.4 0.00 0.00 0.00 68 1015.9
20260901004039 27 165 4.8 6.4 0.00 0.00 0.00 67 1015.9
20260901003938 27 167 4.8 6.4 0.00 0.00 0.00 67 1015.9
20260901003840 27 164 4.8 6.4 0.00 0.00 0.00 68 1015.9
20260901003759 27 167 3.2 6.4 0.00 0.00 0.00 68 1015.9
20260901003637 27 167 3.2 6.4 0.00 0.00 0.00 67 1015.9
20260901003535 27 167 3.2 6.4 0.00 0.00 0.00 67 1015.9
20260901003453 27 165 4.8 6.4 0.00 0.00 0.00 67 1015.9
20260901003331 27 164 3.2 6.4 0.00 0.00 0.00 67 1015.9
20260901003229 27 162 4.8 8.0 0.00 0.00 0.00 67 1015.9
20260901003201 27 167 3.2 8.0 0.00 0.00 0.00 67 1015.9
20260901003042 27 165 3.2 8.0 0.00 0.00 0.00 67 1015.9
20260901002941 27 168 1.6 8.0 0.00 0.00 0.00 67 1015.9
20260901002840 27 169 1.6 8.0 0.00 0.00 0.00 67 1015.9
20260901002739 27 165 1.6 8.0 0.00 0.00 0.00 67 1015.9
20260901002638 27 168 1.6 8.0 0.00 0.00 0.00 67 1015.9
20260901002556 27 169 1.6 8.0 0.00 0.00 0.00 66 1015.9
20260901002433 27 168 1.6 8.0 0.00 0.00 0.00 66 1015.9
20260901002335 27 169 3.2 8.0 0.00 0.00 0.00 66 1015.9
20260901002235 27 167 1.6 6.4 0.00 0.00 0.00 66 1015.9
20260901002133 27 164 1.6 6.4 0.00 0.00 0.00 66 1015.9
20260901002033 27 167 1.6 8.0 0.00 0.00 0.00 66 1015.9
20260901001935 27 168 1.6 8.0 0.00 0.00 0.00 66 1015.9
20260901001833 27 168 3.2 8.0 0.00 0.00 0.00 66 1015.9
20260901001731 27 168 1.6 8.0 0.00 0.00 0.00 66 1015.9
20260901001706 27 168 3.2 8.0 0.00 0.00 0.00 66 1015.9
20260901001524 27 168 1.6 8.0 0.00 0.00 0.00 66 1015.9
20260901001442 27 165 1.6 8.0 0.00 0.00 0.00 66 1015.9
20260901001341 27 167 3.2 8.0 0.00 0.00 0.00 66 1015.9
20260901001240 27 167 3.2 8.0 0.00 0.00 0.00 66 1015.9
20260901001203 27 165 4.8 8.0 0.00 0.00 0.00 65 1015.9
20260901001042 27 168 4.8 4.8 0.00 0.00 0.00 65 1015.9
20260901000925 27 167 4.8 4.8 0.00 0.00 0.00 65 1015.9
20260901000824 27 167 3.2 4.8 0.00 0.00 0.00 65 1015.9
20260901000742 27 165 3.2 4.8 0.00 0.00 0.00 65 1015.9
20260901000701 27 165 3.2 4.8 0.00 0.00 0.00 65 1015.9
20260901000539 27 165 3.2 4.8 0.00 0.00 0.00 65 1015.9
20260901000438 27 168 3.2 4.8 0.00 0.00 0.00 65 1015.9
20260901000350 27 165 3.2 4.8 0.00 0.00 0.00 65 1015.9
20260901000237 27 167 3.2 4.8 0.00 0.00 0.00 65 1015.9
20260901000149 27 168 3.2 4.8 0.00 0.00 0.00 65 1015.9
20260901000049 27 168 3.2 4.8 0.00 0.00 0.00 65 1015.9
20260831235927 27 167 3.2 4.8 0.00 0.00 0.00 65 1015.9
20260831235827 27 167 3.2 4.8 0.00 0.00 0.00 65 1015.9
20260831235726 27 168 3.2 4.8 0.00 0.00 0.00 65 1016.0
20260831235624 27 167 3.2 4.8 0.00 0.00 0.00 65 1016.0
20260831235542 27 167 3.2 4.8 0.00 0.00 0.00 64 1016.0
20260831235440 27 167 4.8 4.8 0.00 0.00 0.00 64 1016.0
20260831235342 27 165 3.2 4.8 0.00 0.00 0.00 63 1016.0
20260831235241 27 164 3.2 4.8 0.00 0.00 0.00 62 1016.0
20260831235141 27 168 3.2 4.8 0.00 0.00 0.00 62 1016.0
20260831235100 27 167 3.2 4.8 0.00 0.00 0.00 62 1016.0
20260831234937 28 168 0.0 3.2 0.00 0.00 0.00 63 1016.0
20260831234835 28 167 0.0 3.2 0.00 0.00 0.00 63 1016.0
20260831234704 28 167 0.0 3.2 0.00 0.00 0.00 63 1016.0
20260831234606 28 169 1.6 3.2 0.00 0.00 0.00 64 1016.0
20260831234503 28 168 1.6 3.2 0.00 0.00 0.00 64 1016.0
20260831234341 28 168 1.6 3.2 0.00 0.00 0.00 63 1016.0
20260831234300 28 167 1.6 3.2 0.00 0.00 0.00 63 1015.9
20260831234157 28 167 0.0 1.6 0.00 0.00 0.00 63 1015.9
20260831234035 28 168 0.0 1.6 0.00 0.00 0.00 63 1015.9
20260831233935 28 165 0.0 1.6 0.00 0.00 0.00 62 1015.9
20260831233833 28 168 0.0 1.6 0.00 0.00 0.00 62 1015.9
20260831233737 28 169 0.0 1.6 0.00 0.00 0.00 62 1015.9
20260831233637 28 167 0.0 0.0 0.00 0.00 0.00 62 1015.9
20260831233534 28 164 0.0 0.0 0.00 0.00 0.00 62 1015.9
20260831233451 28 167 0.0 0.0 0.00 0.00 0.00 62 1015.9
20260831233330 28 168 0.0 0.0 0.00 0.00 0.00 62 1015.9
20260831233249 28 167 0.0 0.0 0.00 0.00 0.00 62 1015.9
20260831233220 28 168 0.0 0.0 0.00 0.00 0.00 62 1015.9
20260831233036 28 167 0.0 0.0 0.00 0.00 0.00 62 1015.9
20260831232954 28 168 0.0 0.0 0.00 0.00 0.00 62 1015.9
20260831232856 28 168 0.0 0.0 0.00 0.00 0.00 62 1015.9
20260831232735 28 167 0.0 0.0 0.00 0.00 0.00 61 1016.0
20260831232632 28 168 0.0 0.0 0.00 0.00 0.00 61 1016.0
20260831232531 28 168 0.0 1.6 0.00 0.00 0.00 61 1016.0
20260831232431 28 167 0.0 1.6 0.00 0.00 0.00 61 1016.0
20260831232330 28 165 0.0 1.6 0.00 0.00 0.00 61 1016.0
20260831232228 28 167 0.0 1.6 0.00 0.00 0.00 61 1016.0
20260831232151 28 168 0.0 1.6 0.00 0.00 0.00 61 1016.0
20260831232029 28 168 0.0 1.6 0.00 0.00 0.00 60 1016.0
20260831231928 28 168 0.0 3.2 0.00 0.00 0.00 60 1016.0
20260831231828 28 168 0.0 3.2 0.00 0.00 0.00 60 1016.0
20260831231726 28 165 0.0 3.2 0.00 0.00 0.00 60 1016.0
20260831231656 28 167 0.0 3.2 0.00 0.00 0.00 60 1016.0
20260831231534 28 168 0.0 3.2 0.00 0.00 0.00 60 1016.0
20260831231437 28 167 0.0 3.2 0.00 0.00 0.00 60 1016.0
20260831231356 28 165 1.6 3.2 0.00 0.00 0.00 60 1016.0
20260831231234 28 167 1.6 3.2 0.00 0.00 0.00 60 1016.0
20260831231133 28 167 0.0 3.2 0.00 0.00 0.00 60 1016.0
20260831231032 28 167 1.6 3.2 0.00 0.00 0.00 60 1016.0
20260831230930 28 167 1.6 3.2 0.00 0.00 0.00 60 1016.0
20260831230830 28 168 0.0 3.2 0.00 0.00 0.00 60 1016.0
20260831230733 28 165 0.0 3.2 0.00 0.00 0.00 60 1016.0
20260831230632 28 165 0.0 3.2 0.00 0.00 0.00 59 1016.0
20260831230530 28 168 1.6 3.2 0.00 0.00 0.00 59 1016.0
20260831230429 28 167 1.6 3.2 0.00 0.00 0.00 59 1016.0
20260831230327 28 167 1.6 3.2 0.00 0.00 0.00 59 1016.0
20260831230228 28 167 1.6 3.2 0.00 0.00 0.00 59 1016.0
20260831230154 28 168 1.6 1.6 0.00 0.00 0.00 59 1016.0
20260831230034 28 168 0.0 0.0 0.00 0.00 0.00 59 1016.0
20260831225934 28 167 0.0 1.6 0.00 0.00 0.00 60 1016.0
20260831225832 28 168 0.0 1.6 0.00 0.00 0.00 60 1016.0
20260831225730 28 168 0.0 1.6 0.00 0.00 0.00 60 1016.1
20260831225629 28 168 0.0 1.6 0.00 0.00 0.00 60 1016.1
20260831225529 28 168 0.0 1.6 0.00 0.00 0.00 60 1016.1
20260831225428 28 168 0.0 3.2 0.00 0.00 0.00 60 1016.1
20260831225331 28 168 0.0 4.8 0.00 0.00 0.00 60 1016.1
20260831225228 28 168 0.0 4.8 0.00 0.00 0.00 60 1016.1
20260831225127 28 165 0.0 4.8 0.00 0.00 0.00 60 1016.1
20260831225025 28 167 0.0 6.4 0.00 0.00 0.00 60 1016.1
20260831224944 28 168 0.0 6.4 0.00 0.00 0.00 60 1016.1
20260831224842 28 168 0.0 6.4 0.00 0.00 0.00 60 1016.1
20260831224801 28 168 0.0 6.4 0.00 0.00 0.00 58 1016.1
20260831224710 28 168 1.6 6.4 0.00 0.00 0.00 59 1016.1
20260831224531 28 168 3.2 6.4 0.00 0.00 0.00 59 1016.1
20260831224450 28 167 1.6 6.4 0.00 0.00 0.00 59 1016.1
20260831224326 28 168 1.6 6.4 0.00 0.00 0.00 59 1016.1
20260831224244 28 168 3.2 6.4 0.00 0.00 0.00 59 1016.3
20260831224203 28 168 3.2 6.4 0.00 0.00 0.00 59 1016.3
20260831224101 28 167 0.0 3.2 0.00 0.00 0.00 59 1016.3
20260831223938 28 165 0.0 3.2 0.00 0.00 0.00 59 1016.3
20260831223857 28 162 0.0 4.8 0.00 0.00 0.00 58 1016.3
20260831223735 28 167 0.0 4.8 0.00 0.00 0.00 59 1016.3
20260831223637 28 167 0.0 4.8 0.00 0.00 0.00 58 1016.3
20260831223556 28 165 0.0 4.8 0.00 0.00 0.00 59 1016.3
20260831223433 28 167 0.0 6.4 0.00 0.00 0.00 59 1016.3
20260831223332 28 167 0.0 6.4 0.00 0.00 0.00 59 1016.3
20260831223252 28 164 0.0 6.4 0.00 0.00 0.00 59 1016.3
20260831223223 28 162 1.6 8.0 0.00 0.00 0.00 59 1016.3
20260831223039 28 167 3.2 8.0 0.00 0.00 0.00 59 1016.3
20260831222938 28 165 3.2 8.0 0.00 0.00 0.00 59 1016.3
20260831222901 28 165 1.6 8.0 0.00 0.00 0.00 59 1016.3
20260831222737 28 165 1.6 8.0 0.00 0.00 0.00 59 1016.4
20260831222635 28 167 3.2 8.0 0.00 0.00 0.00 59 1016.4
20260831222537 28 167 1.6 8.0 0.00 0.00 0.00 59 1016.4
20260831222436 28 165 1.6 8.0 0.00 0.00 0.00 59 1016.4
20260831222358 28 167 4.8 8.0 0.00 0.00 0.00 58 1016.4
20260831222235 28 160 3.2 8.0 0.00 0.00 0.00 58 1016.4
20260831222137 28 167 0.0 8.0 0.00 0.00 0.00 58 1016.4
20260831222055 28 167 1.6 8.0 0.00 0.00 0.00 58 1016.4
20260831221932 28 164 3.2 8.0 0.00 0.00 0.00 58 1016.4
20260831221850 28 167 3.2 8.0 0.00 0.00 0.00 58 1016.4
20260831221739 28 167 1.6 8.0 0.00 0.00 0.00 57 1016.4
20260831221648 28 167 3.2 8.0 0.00 0.00 0.00 58 1016.4
20260831221526 28 165 4.8 8.0 0.00 0.00 0.00 59 1016.4
20260831221424 28 165 1.6 8.0 0.00 0.00 0.00 59 1016.4
20260831221329 28 165 3.2 8.0 0.00 0.00 0.00 59 1016.4
20260831221228 28 165 6.4 8.0 0.00 0.00 0.00 58 1016.4
20260831221146 28 110 0.0 3.2 0.00 0.00 0.00 58 1016.4
20260831221043 28 109 0.0 3.2 0.00 0.00 0.00 58 1016.4
20260831221002 28 109 1.6 4.8 0.00 0.00 0.00 57 1016.4
20260831220839 28 107 0.0 9.7 0.00 0.00 0.00 56 1016.4
20260831220756 28 109 0.0 9.7 0.00 0.00 0.00 56 1016.4
20260831220633 28 106 0.0 9.7 0.00 0.00 0.00 57 1016.4
20260831220531 28 109 0.0 9.7 0.00 0.00 0.00 57 1016.4
20260831220433 28 109 0.0 9.7 0.00 0.00 0.00 57 1016.4
20260831220331 28 107 1.6 9.7 0.00 0.00 0.00 57 1016.4
20260831220239 28 107 1.6 9.7 0.00 0.00 0.00 57 1016.4
20260831220148 28 107 3.2 9.7 0.00 0.00 0.00 57 1016.4
20260831220045 28 110 3.2 9.7 0.00 0.00 0.00 57 1016.4
20260831220002 28 107 6.4 9.7 0.00 0.00 0.00 56 1016.4
20260831215859 28 109 4.8 9.7 0.00 0.00 0.00 56 1016.4
20260831215740 28 100 3.2 4.8 0.00 0.00 0.00 56 1016.4
20260831215659 28 99 3.2 4.8 0.00 0.00 0.00 56 1016.4
20260831215556 29 99 1.6 4.8 0.00 0.00 0.00 58 1016.4
20260831215436 29 97 3.2 4.8 0.00 0.00 0.00 58 1016.4
20260831215355 29 99 1.6 4.8 0.00 0.00 0.00 58 1016.4
20260831215231 29 99 3.2 4.8 0.00 0.00 0.00 58 1016.4
20260831215130 29 97 0.0 4.8 0.00 0.00 0.00 58 1016.4
20260831215029 29 99 0.0 4.8 0.00 0.00 0.00 58 1016.4
20260831214928 29 99 0.0 4.8 0.00 0.00 0.00 58 1016.4
20260831214827 29 96 0.0 4.8 0.00 0.00 0.00 58 1016.4
20260831214740 29 99 0.0 4.8 0.00 0.00 0.00 59 1016.4
20260831214649 29 99 1.6 4.8 0.00 0.00 0.00 58 1016.4
20260831214527 29 97 0.0 4.8 0.00 0.00 0.00 58 1016.4
20260831214425 29 95 1.6 4.8 0.00 0.00 0.00 57 1016.4
20260831214325 29 97 0.0 4.8 0.00 0.00 0.00 57 1016.4
20260831214224 29 99 1.6 4.8 0.00 0.00 0.00 57 1016.5
20260831214124 29 97 0.0 4.8 0.00 0.00 0.00 57 1016.5
20260831214026 29 96 1.6 4.8 0.00 0.00 0.00 56 1016.5
20260831213925 29 99 3.2 4.8 0.00 0.00 0.00 56 1016.5
20260831213845 29 96 3.2 4.8 0.00 0.00 0.00 56 1016.5
20260831213803 29 97 1.6 4.8 0.00 0.00 0.00 56 1016.5
20260831213641 29 95 0.0 3.2 0.00 0.00 0.00 56 1016.5
20260831213540 29 97 0.0 3.2 0.00 0.00 0.00 56 1016.5
20260831213439 29 97 0.0 3.2 0.00 0.00 0.00 57 1016.5
20260831213337 29 96 0.0 3.2 0.00 0.00 0.00 55 1016.5
20260831213241 29 96 1.6 3.2 0.00 0.00 0.00 56 1016.5
20260831213211 29 97 1.6 3.2 0.00 0.00 0.00 56 1016.5
20260831213027 29 96 0.0 3.2 0.00 0.00 0.00 55 1016.5
20260831212926 29 97 0.0 3.2 0.00 0.00 0.00 54 1016.5
20260831212826 29 96 0.0 4.8 0.00 0.00 0.00 54 1016.5
20260831212726 29 96 0.0 4.8 0.00 0.00 0.00 54 1016.6
20260831212625 29 97 0.0 4.8 0.00 0.00 0.00 56 1016.6
20260831212547 29 97 0.0 6.4 0.00 0.00 0.00 56 1016.6
20260831212425 29 97 0.0 6.4 0.00 0.00 0.00 56 1016.6
20260831212342 29 96 0.0 6.4 0.00 0.00 0.00 56 1016.6
20260831212241 29 96 1.6 6.4 0.00 0.00 0.00 56 1016.6
20260831212200 29 97 1.6 6.4 0.00 0.00 0.00 56 1016.6
20260831212036 29 97 1.6 6.4 0.00 0.00 0.00 56 1016.6
20260831211934 29 96 3.2 6.4 0.00 0.00 0.00 56 1016.6
20260831211832 29 95 3.2 6.4 0.00 0.00 0.00 56 1016.6
20260831211735 29 96 4.8 6.4 0.00 0.00 0.00 56 1016.6
20260831211704 29 97 4.8 6.4 0.00 0.00 0.00 56 1016.6
20260831211602 29 96 3.2 4.8 0.00 0.00 0.00 57 1016.6
20260831211439 29 96 3.2 4.8 0.00 0.00 0.00 57 1016.6
20260831211337 29 96 1.6 8.0 0.00 0.00 0.00 57 1016.6
20260831211235 29 95 0.0 8.0 0.00 0.00 0.00 58 1016.7
20260831211134 29 97 1.6 8.0 0.00 0.00 0.00 57 1016.7
20260831211034 29 96 3.2 8.0 0.00 0.00 0.00 58 1016.7
20260831210937 29 97 3.2 8.0 0.00 0.00 0.00 58 1016.7
20260831210837 29 97 3.2 8.0 0.00 0.00 0.00 58 1016.7
20260831210735 29 97 1.6 8.0 0.00 0.00 0.00 56 1016.7
20260831210634 29 96 1.6 8.0 0.00 0.00 0.00 56 1016.7
20260831210533 29 96 4.8 8.0 0.00 0.00 0.00 56 1016.7
20260831210431 29 96 4.8 8.0 0.00 0.00 0.00 57 1016.7
20260831210334 28 97 4.8 8.0 0.00 0.00 0.00 58 1016.7
20260831210243 28 97 6.4 8.0 0.00 0.00 0.00 58 1016.7
20260831210153 28 96 6.4 8.0 0.00 0.00 0.00 56 1016.7
20260831210028 28 99 1.6 4.8 0.00 0.00 0.00 55 1016.7
20260831205930 28 97 0.0 8.0 0.00 0.00 0.00 54 1016.7
20260831205850 28 95 0.0 8.0 0.00 0.00 0.00 54 1016.7
20260831205747 28 96 1.6 8.0 0.00 0.00 0.00 54 1016.9
20260831205623 28 97 0.0 8.0 0.00 0.00 0.00 54 1016.9
20260831205523 28 97 0.0 8.0 0.00 0.00 0.00 55 1016.9
20260831205429 28 95 0.0 9.7 0.00 0.00 0.00 57 1016.9
20260831205328 28 97 3.2 9.7 0.00 0.00 0.00 57 1016.9
20260831205227 28 97 3.2 9.7 0.00 0.00 0.00 58 1016.9
20260831205127 28 97 4.8 9.7 0.00 0.00 0.00 58 1016.9
20260831205047 28 96 4.8 9.7 0.00 0.00 0.00 58 1016.9
20260831205005 28 97 3.2 9.7 0.00 0.00 0.00 59 1016.9
20260831204842 28 96 3.2 9.7 0.00 0.00 0.00 59 1016.9
20260831204725 28 97 4.8 9.7 0.00 0.00 0.00 59 1016.9
20260831204656 28 95 6.4 9.7 0.00 0.00 0.00 59 1016.9
20260831204533 28 99 4.8 9.7 0.00 0.00 0.00 59 1016.9
20260831204433 28 99 1.6 6.4 0.00 0.00 0.00 57 1016.9
20260831204332 28 100 0.0 6.4 0.00 0.00 0.00 57 1016.9
20260831204230 28 99 0.0 6.4 0.00 0.00 0.00 56 1016.9
20260831204129 28 97 0.0 6.4 0.00 0.00 0.00 56 1016.9
20260831204052 28 100 3.2 6.4 0.00 0.00 0.00 56 1016.9
20260831203930 28 99 3.2 6.4 0.00 0.00 0.00 57 1016.9
20260831203829 28 144 1.6 8.0 0.00 0.00 0.00 57 1016.9
20260831203728 28 144 3.2 8.0 0.00 0.00 0.00 57 1016.9
20260831203626 28 182 4.8 8.0 0.00 0.00 0.00 57 1016.9
20260831203526 28 184 0.0 8.0 0.00 0.00 0.00 58 1016.9
20260831203425 28 186 3.2 8.0 0.00 0.00 0.00 58 1016.9
20260831203330 28 185 3.2 8.0 0.00 0.00 0.00 59 1016.9
20260831203202 28 185 1.6 8.0 0.00 0.00 0.00 59 1016.9
20260831203039 28 185 3.2 8.0 0.00 0.00 0.00 59 1016.9
20260831202958 28 184 3.2 8.0 0.00 0.00 0.00 58 1016.9
20260831202835 28 182 1.6 8.0 0.00 0.00 0.00 59 1016.9
20260831202739 28 182 1.6 4.8 0.00 0.00 0.00 59 1017.0
20260831202641 28 184 1.6 4.8 0.00 0.00 0.00 58 1017.0
20260831202602 28 184 1.6 4.8 0.00 0.00 0.00 58 1017.0
20260831202438 28 181 1.6 4.8 0.00 0.00 0.00 58 1017.0
20260831202336 28 181 0.0 4.8 0.00 0.00 0.00 59 1017.0
20260831202255 28 181 0.0 4.8 0.00 0.00 0.00 59 1017.0
20260831202132 28 192 0.0 8.0 0.00 0.00 0.00 59 1017.0
20260831202031 28 192 0.0 8.0 0.00 0.00 0.00 59 1017.0
20260831201929 28 193 0.0 8.0 0.00 0.00 0.00 57 1017.0
20260831201832 28 192 0.0 8.0 0.00 0.00 0.00 58 1017.0
20260831201735 28 192 0.0 8.0 0.00 0.00 0.00 58 1017.0
20260831201702 28 193 1.6 8.0 0.00 0.00 0.00 58 1017.0
20260831201601 28 191 3.2 8.0 0.00 0.00 0.00 59 1017.0
20260831201439 28 191 1.6 8.0 0.00 0.00 0.00 59 1017.0